Jump to: Map   Top of Page   Track Data   Planned Ports of Call   Notes   Bottom of Page
  Great Circle Distances:
  Last reported position of Hōkūleʻa
  2022-05-16T07:18:36UTC latitude: -17.48897 longitude: -149.81848 course: 180 degrees speed: 0.0 knots
  To last port:    26.5 km,    14.3 nm / TrueBearing: 102 degrees / RelativeBearing: *undefined* > Plage Hōkūleʻa, Papeʻete, French Polynesia
  To next port:     0.1 km,     0.0 nm / TrueBearing: 291 degrees / RelativeBearing: *undefined* > Cook's Bay, Moʻorea
  Rough estimate of elapsed time to next port for Hōkūleʻa is not available when speed is zero.


  Last reported position of Hikianalia
  2022-05-16T06:10:19UTC latitude: -17.48877 longitude: -149.81875 course: 97 degrees speed: 0.1 knots
  To last port:    26.6 km,    14.3 nm / TrueBearing: 102 degrees / RelativeBearing: *undefined* > Plage Hōkūleʻa, Papeʻete, French Polynesia
  To next port:     0.0 km,     0.0 nm / TrueBearing: 259 degrees / RelativeBearing: *undefined* > Cook's Bay, Moʻorea
  Rough estimate of elapsed time to next port for Hikianalia is not available when speed is zero.


  Track data: (most recent on top)
  Each circular icon on the map marks a measurement point in this list.
      Date-Time(UTC)       Hawaiʻi-Standard-Time    Approximate-Local-Time    Latitude  Longitude  Course Speed Vessel
  YYYY-MM-DDThh:mm:ss    YYYY-MM-DDThh:mm:ss-10:00 YYYY-MM-DDThh:mm:ss∓HH:MM   degrees    degrees degrees knots
  2022-05-16T07:18:36UTC 2022-05-15T21:18:36-10:00 2022-05-15T21:18:36-10:00 -17.48897 -149.81848     180   0.0 Hōkūleʻa
  2022-05-16T06:29:37UTC 2022-05-15T20:29:37-10:00 2022-05-15T20:29:37-10:00 -17.48885 -149.81848      75   0.0 Hōkūleʻa
  2022-05-16T06:10:19UTC 2022-05-15T20:10:19-10:00 2022-05-15T20:10:19-10:00 -17.48877 -149.81875      97   0.1 Hikianalia
  2022-05-16T05:18:35UTC 2022-05-15T19:18:35-10:00 2022-05-15T19:18:35-10:00 -17.48886 -149.81852     219   1.6 Hōkūleʻa
  2022-05-16T05:09:15UTC 2022-05-15T19:09:15-10:00 2022-05-15T19:09:15-10:00 -17.48861 -149.82004     238   2.4 Hikianalia
  2022-05-16T04:18:29UTC 2022-05-15T18:18:29-10:00 2022-05-15T18:18:29-10:00 -17.46762 -149.80051     282   7.4 Hōkūleʻa
  2022-05-16T04:10:14UTC 2022-05-15T18:10:14-10:00 2022-05-15T18:10:14-10:00 -17.46739 -149.78515     284   7.4 Hikianalia
  2022-05-16T03:18:57UTC 2022-05-15T17:18:57-10:00 2022-05-15T17:18:57-10:00 -17.49338 -149.67544     297   6.1 Hōkūleʻa
  2022-05-16T03:10:18UTC 2022-05-15T17:10:18-10:00 2022-05-15T17:10:18-10:00 -17.49805 -149.66076     298   5.4 Hikianalia
  2022-05-16T02:18:53UTC 2022-05-15T16:18:53-10:00 2022-05-15T16:18:53-10:00 -17.54000 -149.58075     251   0.7 Hōkūleʻa
  2022-05-16T02:10:50UTC 2022-05-15T16:10:50-10:00 2022-05-15T16:10:50-10:00 -17.53961 -149.57793     248   0.6 Hikianalia
  2022-05-16T01:18:24UTC 2022-05-15T15:18:24-10:00 2022-05-15T15:18:24-10:00 -17.53613 -149.56901       0   0.0 Hōkūleʻa
  2022-05-16T01:10:11UTC 2022-05-15T15:10:11-10:00 2022-05-15T15:10:11-10:00 -17.53599 -149.56849      91   0.0 Hikianalia
  2022-05-08T04:18:26UTC 2022-05-07T18:18:26-10:00 2022-05-07T18:18:26-10:00 -17.53614 -149.56901     135   0.0 Hōkūleʻa
  2022-05-08T04:10:18UTC 2022-05-07T18:10:18-10:00 2022-05-07T18:10:18-10:00 -17.53598 -149.56912     151   0.0 Hikianalia
  2022-05-08T03:18:39UTC 2022-05-07T17:18:39-10:00 2022-05-07T17:18:39-10:00 -17.53612 -149.56903      44   0.5 Hōkūleʻa
  2022-05-08T03:10:17UTC 2022-05-07T17:10:17-10:00 2022-05-07T17:10:17-10:00 -17.53591 -149.56916      43   0.5 Hikianalia
  2022-05-08T02:17:43UTC 2022-05-07T16:17:43-10:00 2022-05-07T16:17:43-10:00 -17.54187 -149.57476      84   0.0 Hōkūleʻa
  2022-05-08T02:09:50UTC 2022-05-07T16:09:50-10:00 2022-05-07T16:09:50-10:00 -17.54201 -149.57508     180   0.0 Hikianalia
  2022-05-08T01:18:25UTC 2022-05-07T15:18:25-10:00 2022-05-07T15:18:25-10:00 -17.54188 -149.57487     270   0.0 Hōkūleʻa
  2022-05-08T01:10:14UTC 2022-05-07T15:10:14-10:00 2022-05-07T15:10:14-10:00 -17.54199 -149.57508     277   0.0 Hikianalia
  2022-05-08T00:17:28UTC 2022-05-07T14:17:28-10:00 2022-05-07T14:17:28-10:00 -17.54188 -149.57472     179   1.6 Hōkūleʻa
  2022-05-08T00:09:21UTC 2022-05-07T14:09:21-10:00 2022-05-07T14:09:21-10:00 -17.54201 -149.57489     190   2.1 Hikianalia
  2022-05-07T23:18:48UTC 2022-05-07T13:18:48-10:00 2022-05-07T13:18:48-10:00 -17.51600 -149.57538     217   5.3 Hōkūleʻa
  2022-05-07T23:10:20UTC 2022-05-07T13:10:20-10:00 2022-05-07T13:10:20-10:00 -17.50722 -149.56864     217   4.8 Hikianalia
  2022-05-07T22:27:40UTC 2022-05-07T12:27:40-10:00 2022-05-07T12:27:40-10:00 -17.45631 -149.52770     219   7.4 Hōkūleʻa
  2022-05-07T22:09:41UTC 2022-05-07T12:09:41-10:00 2022-05-07T12:09:41-10:00 -17.44227 -149.51762     220   8.8 Hikianalia
  2022-05-07T21:17:41UTC 2022-05-07T11:17:41-10:00 2022-05-07T11:17:41-10:00 -17.34412 -149.43172     222   8.7 Hōkūleʻa
  2022-05-07T21:10:12UTC 2022-05-07T11:10:12-10:00 2022-05-07T11:10:12-10:00 -17.33092 -149.41868     221   8.5 Hikianalia
  2022-05-07T20:18:39UTC 2022-05-07T10:18:39-10:00 2022-05-07T10:18:39-10:00 -17.23790 -149.33186     218   8.3 Hōkūleʻa
  2022-05-07T20:10:17UTC 2022-05-07T10:10:17-10:00 2022-05-07T10:10:17-10:00 -17.22409 -149.32044     217   8.4 Hikianalia
  2022-05-07T19:17:39UTC 2022-05-07T09:17:39-10:00 2022-05-07T09:17:39-10:00 -17.12671 -149.24111     214   8.3 Hōkūleʻa
  2022-05-07T19:10:20UTC 2022-05-07T09:10:20-10:00 2022-05-07T09:10:20-10:00 -17.11251 -149.23135     214   8.1 Hikianalia
  2022-05-07T18:18:42UTC 2022-05-07T08:18:42-10:00 2022-05-07T08:18:42-10:00 -17.01327 -149.16148     218   8.0 Hōkūleʻa
  2022-05-07T18:09:39UTC 2022-05-07T08:09:39-10:00 2022-05-07T08:09:39-10:00 -16.99972 -149.15174     219   8.0 Hikianalia
  2022-05-07T17:18:39UTC 2022-05-07T07:18:39-10:00 2022-05-07T07:18:39-10:00 -16.90876 -149.07514     216   7.6 Hōkūleʻa
  2022-05-07T17:10:09UTC 2022-05-07T07:10:09-10:00 2022-05-07T07:10:09-10:00 -16.89592 -149.06439     215   7.4 Hikianalia
  2022-05-07T16:19:25UTC 2022-05-07T06:19:25-10:00 2022-05-07T06:19:25-10:00 -16.80734 -148.99892     209   7.0 Hōkūleʻa
  2022-05-07T16:10:19UTC 2022-05-07T06:10:19-10:00 2022-05-07T06:10:19-10:00 -16.79528 -148.99148     209   8.6 Hikianalia
  2022-05-07T15:19:39UTC 2022-05-07T05:19:39-10:00 2022-05-07T05:19:39-10:00 -16.68878 -148.92991     211   6.7 Hikianalia
  2022-05-07T15:17:50UTC 2022-05-07T05:17:50-10:00 2022-05-07T05:17:50-10:00 -16.70160 -148.93835     212   7.1 Hōkūleʻa
  2022-05-07T14:18:44UTC 2022-05-07T04:18:44-10:00 2022-05-07T04:18:44-10:00 -16.60193 -148.87421     205   9.7 Hōkūleʻa
  2022-05-07T14:17:47UTC 2022-05-07T04:17:47-10:00 2022-05-07T04:17:47-10:00 -16.58966 -148.86818     205   6.2 Hikianalia
  2022-05-07T13:35:53UTC 2022-05-07T03:35:53-10:00 2022-05-07T03:35:53-10:00 -16.49680 -148.82445     208   5.3 Hōkūleʻa
  2022-05-07T13:10:13UTC 2022-05-07T03:10:13-10:00 2022-05-07T03:10:13-10:00 -16.48416 -148.81831     209   6.9 Hikianalia
  2022-05-07T12:18:41UTC 2022-05-07T02:18:41-10:00 2022-05-07T02:18:41-10:00 -16.39619 -148.76874     203   6.8 Hōkūleʻa
  2022-05-07T12:11:27UTC 2022-05-07T02:11:27-10:00 2022-05-07T02:11:27-10:00 -16.38460 -148.76111     202   6.7 Hikianalia
  2022-05-07T11:18:35UTC 2022-05-07T01:18:35-10:00 2022-05-07T01:18:35-10:00 -16.29164 -148.72261     210   6.9 Hōkūleʻa
  2022-05-07T11:10:34UTC 2022-05-07T01:10:34-10:00 2022-05-07T01:10:34-10:00 -16.27940 -148.71613     210   6.9 Hikianalia
  2022-05-07T10:18:43UTC 2022-05-07T00:18:43-10:00 2022-05-07T00:18:43-10:00 -16.19096 -148.66328     222   7.1 Hōkūleʻa
  2022-05-07T10:09:47UTC 2022-05-07T00:09:47-10:00 2022-05-07T00:09:47-10:00 -16.17871 -148.65543     224   7.2 Hikianalia
  2022-05-07T09:18:32UTC 2022-05-06T23:18:32-10:00 2022-05-06T23:18:32-10:00 -16.10184 -148.58153     215   7.2 Hōkūleʻa
  2022-05-07T09:10:12UTC 2022-05-06T23:10:12-10:00 2022-05-06T23:10:12-10:00 -16.09259 -148.56878     212   7.3 Hikianalia
  2022-05-07T08:18:30UTC 2022-05-06T22:18:30-10:00 2022-05-06T22:18:30-10:00 -16.00213 -148.51001     206   7.4 Hōkūleʻa
  2022-05-07T08:10:09UTC 2022-05-06T22:10:09-10:00 2022-05-06T22:10:09-10:00 -15.98821 -148.50200     205   7.3 Hikianalia
  2022-05-07T07:18:59UTC 2022-05-06T21:18:59-10:00 2022-05-06T21:18:59-10:00 -15.89179 -148.45439     207   7.4 Hōkūleʻa
  2022-05-07T07:10:18UTC 2022-05-06T21:10:18-10:00 2022-05-06T21:10:18-10:00 -15.87805 -148.44789     207   7.4 Hikianalia
  2022-05-07T06:19:43UTC 2022-05-06T20:19:43-10:00 2022-05-06T20:19:43-10:00 -15.78273 -148.39727     212   7.4 Hōkūleʻa
  2022-05-07T06:10:52UTC 2022-05-06T20:10:52-10:00 2022-05-06T20:10:52-10:00 -15.76953 -148.39053     212   7.5 Hikianalia
  2022-05-07T05:18:50UTC 2022-05-06T19:18:50-10:00 2022-05-06T19:18:50-10:00 -15.67595 -148.32826     214   7.4 Hōkūleʻa
  2022-05-07T05:10:10UTC 2022-05-06T19:10:10-10:00 2022-05-06T19:10:10-10:00 -15.66231 -148.32101     214   7.4 Hikianalia
  2022-05-07T04:18:34UTC 2022-05-06T18:18:34-10:00 2022-05-06T18:18:34-10:00 -15.57268 -148.25694     208   7.2 Hōkūleʻa
  2022-05-07T04:10:23UTC 2022-05-06T18:10:23-10:00 2022-05-06T18:10:23-10:00 -15.55961 -148.24971     208   7.2 Hikianalia
  2022-05-07T03:18:40UTC 2022-05-06T17:18:40-10:00 2022-05-06T17:18:40-10:00 -15.46604 -148.19795     205   7.2 Hōkūleʻa
  2022-05-07T03:10:12UTC 2022-05-06T17:10:12-10:00 2022-05-06T17:10:12-10:00 -15.45285 -148.19091     205   7.1 Hikianalia
  2022-05-07T02:18:49UTC 2022-05-06T16:18:49-10:00 2022-05-06T16:18:49-10:00 -15.35647 -148.14555     215   7.3 Hōkūleʻa
  2022-05-07T02:09:49UTC 2022-05-06T16:09:49-10:00 2022-05-06T16:09:49-10:00 -15.34393 -148.13900     215   7.5 Hikianalia
  2022-05-07T01:18:49UTC 2022-05-06T15:18:49-10:00 2022-05-06T15:18:49-10:00 -15.25622 -148.07356     213   7.1 Hōkūleʻa
  2022-05-07T01:10:21UTC 2022-05-06T15:10:21-10:00 2022-05-06T15:10:21-10:00 -15.24301 -148.06547     212   6.9 Hikianalia
  2022-05-07T00:17:23UTC 2022-05-06T14:17:23-10:00 2022-05-06T14:17:23-10:00 -15.15390 -148.00595     209   6.3 Hōkūleʻa
  2022-05-07T00:09:11UTC 2022-05-06T14:09:11-10:00 2022-05-06T14:09:11-10:00 -15.14432 -148.00082     210   6.2 Hikianalia
  2022-05-06T23:18:37UTC 2022-05-06T13:18:37-10:00 2022-05-06T13:18:37-10:00 -15.06403 -147.95370     212   6.5 Hōkūleʻa
  2022-05-06T23:09:42UTC 2022-05-06T13:09:42-10:00 2022-05-06T13:09:42-10:00 -15.05453 -147.94805     213   6.7 Hikianalia
  2022-05-06T22:18:51UTC 2022-05-06T12:18:51-10:00 2022-05-06T12:18:51-10:00 -14.97256 -147.89460     235   6.1 Hōkūleʻa
  2022-05-06T22:10:11UTC 2022-05-06T12:10:11-10:00 2022-05-06T12:10:11-10:00 -14.96125 -147.88593     242   6.0 Hikianalia
  2022-05-06T21:17:41UTC 2022-05-06T11:17:41-10:00 2022-05-06T11:17:41-10:00 -14.91260 -147.80766     281   5.6 Hōkūleʻa
  2022-05-06T21:09:18UTC 2022-05-06T11:09:18-10:00 2022-05-06T11:09:18-10:00 -14.91393 -147.79304     286   4.9 Hikianalia
  2022-05-06T20:17:27UTC 2022-05-06T10:17:27-10:00 2022-05-06T10:17:27-10:00 -14.93010 -147.71277      16   1.1 Hōkūleʻa
  2022-05-06T20:09:42UTC 2022-05-06T10:09:42-10:00 2022-05-06T10:09:42-10:00 -14.93619 -147.71243      25   0.8 Hikianalia
  2022-05-06T19:18:33UTC 2022-05-06T09:18:33-10:00 2022-05-06T09:18:33-10:00 -14.94726 -147.71770     323   0.0 Hōkūleʻa
  2022-05-06T19:10:14UTC 2022-05-06T09:10:14-10:00 2022-05-06T09:10:14-10:00 -14.94769 -147.71805      25   0.0 Hikianalia
  2022-05-06T04:18:34UTC 2022-05-05T18:18:34-10:00 2022-05-05T18:18:34-10:00 -14.94740 -147.71760       0   0.0 Hōkūleʻa
  2022-05-06T04:10:33UTC 2022-05-05T18:10:33-10:00 2022-05-05T18:10:33-10:00 -14.94818 -147.71828     166   0.0 Hikianalia
  2022-05-06T03:26:16UTC 2022-05-05T17:26:16-10:00 2022-05-05T17:26:16-10:00 -14.94741 -147.71760     185   1.4 Hōkūleʻa
  2022-05-06T03:09:20UTC 2022-05-05T17:09:20-10:00 2022-05-05T17:09:20-10:00 -14.94758 -147.71843     197   1.5 Hikianalia
  2022-05-06T02:17:42UTC 2022-05-05T16:17:42-10:00 2022-05-05T16:17:42-10:00 -14.92100 -147.71543     286   7.4 Hōkūleʻa
  2022-05-06T02:10:42UTC 2022-05-05T16:10:42-10:00 2022-05-05T16:10:42-10:00 -14.92459 -147.71118     285   8.0 Hikianalia
  2022-05-06T01:18:40UTC 2022-05-05T15:18:40-10:00 2022-05-05T15:18:40-10:00 -14.95424 -147.59501     287   7.9 Hōkūleʻa
  2022-05-06T01:10:23UTC 2022-05-05T15:10:23-10:00 2022-05-05T15:10:23-10:00 -14.95894 -147.57789     288   7.8 Hikianalia
  2022-05-06T00:17:27UTC 2022-05-05T14:17:27-10:00 2022-05-05T14:17:27-10:00 -14.99446 -147.46328     284   8.0 Hōkūleʻa
  2022-05-06T00:09:17UTC 2022-05-05T14:09:17-10:00 2022-05-05T14:09:17-10:00 -14.99919 -147.44715     283   9.2 Hikianalia
  2022-05-05T23:17:31UTC 2022-05-05T13:17:31-10:00 2022-05-05T13:17:31-10:00 -15.02665 -147.32930     284   8.3 Hōkūleʻa
  2022-05-05T23:16:41UTC 2022-05-05T13:16:41-10:00 2022-05-05T13:16:41-10:00 -15.03027 -147.31248     284   7.2 Hikianalia
  2022-05-05T22:18:53UTC 2022-05-05T12:18:53-10:00 2022-05-05T12:18:53-10:00 -15.05930 -147.19414     281   8.7 Hōkūleʻa
  2022-05-05T22:09:49UTC 2022-05-05T12:09:49-10:00 2022-05-05T12:09:49-10:00 -15.06374 -147.17856     280   7.8 Hikianalia
  2022-05-05T21:24:52UTC 2022-05-05T11:24:52-10:00 2022-05-05T11:24:52-10:00 -15.08419 -147.06099     283   6.8 Hōkūleʻa
  2022-05-05T21:09:19UTC 2022-05-05T11:09:19-10:00 2022-05-05T11:09:19-10:00 -15.08708 -147.04445     283   7.7 Hikianalia
  2022-05-05T20:17:35UTC 2022-05-05T10:17:35-10:00 2022-05-05T10:17:35-10:00 -15.11303 -146.93214     287   8.1 Hōkūleʻa
  2022-05-05T20:10:09UTC 2022-05-05T10:10:09-10:00 2022-05-05T10:10:09-10:00 -15.11562 -146.91620     288   9.2 Hikianalia
  2022-05-05T19:18:39UTC 2022-05-05T09:18:39-10:00 2022-05-05T09:18:39-10:00 -15.15100 -146.80150     285   5.2 Hōkūleʻa
  2022-05-05T19:18:30UTC 2022-05-05T09:18:30-10:00 2022-05-05T09:18:30-10:00 -15.15692 -146.78698     280   4.1 Hikianalia
  2022-05-05T18:18:50UTC 2022-05-05T08:18:50-10:00 2022-05-05T08:18:50-10:00 -15.17385 -146.71505     272   3.0 Hōkūleʻa
  2022-05-05T18:09:48UTC 2022-05-05T08:09:48-10:00 2022-05-05T08:09:48-10:00 -15.17025 -146.70707     253   2.5 Hikianalia
  2022-05-05T17:17:46UTC 2022-05-05T07:17:46-10:00 2022-05-05T07:17:46-10:00 -15.17552 -146.66171     257   2.9 Hōkūleʻa
  2022-05-05T17:10:12UTC 2022-05-05T07:10:12-10:00 2022-05-05T07:10:12-10:00 -15.15809 -146.66639     266   2.8 Hikianalia
  2022-05-05T16:18:26UTC 2022-05-05T06:18:26-10:00 2022-05-05T06:18:26-10:00 -15.16446 -146.61349     219   0.7 Hōkūleʻa
  2022-05-05T16:10:11UTC 2022-05-05T06:10:11-10:00 2022-05-05T06:10:11-10:00 -15.15513 -146.61879     219   0.6 Hikianalia
  2022-05-05T15:18:26UTC 2022-05-05T05:18:26-10:00 2022-05-05T05:18:26-10:00 -15.15518 -146.60583     201   0.4 Hōkūleʻa
  2022-05-05T15:10:18UTC 2022-05-05T05:10:18-10:00 2022-05-05T05:10:18-10:00 -15.14748 -146.61238     228   0.5 Hikianalia
  2022-05-05T14:18:56UTC 2022-05-05T04:18:56-10:00 2022-05-05T04:18:56-10:00 -15.14914 -146.60345     190   0.6 Hōkūleʻa
  2022-05-05T14:10:41UTC 2022-05-05T04:10:41-10:00 2022-05-05T04:10:41-10:00 -15.14209 -146.60611     215   0.6 Hikianalia
  2022-05-05T13:18:35UTC 2022-05-05T03:18:35-10:00 2022-05-05T03:18:35-10:00 -15.13986 -146.60169     188   1.4 Hōkūleʻa
  2022-05-05T13:09:16UTC 2022-05-05T03:09:16-10:00 2022-05-05T03:09:16-10:00 -15.13316 -146.59970     181   1.9 Hikianalia
  2022-05-05T12:19:25UTC 2022-05-05T02:19:25-10:00 2022-05-05T02:19:25-10:00 -15.11763 -146.59858     177   4.3 Hōkūleʻa
  2022-05-05T12:10:11UTC 2022-05-05T02:10:11-10:00 2022-05-05T02:10:11-10:00 -15.10178 -146.59924     173   4.9 Hikianalia
  2022-05-05T11:18:42UTC 2022-05-05T01:18:42-10:00 2022-05-05T01:18:42-10:00 -15.04436 -146.60274     169   3.7 Hōkūleʻa
  2022-05-05T11:10:11UTC 2022-05-05T01:10:11-10:00 2022-05-05T01:10:11-10:00 -15.01982 -146.60944     171   3.3 Hikianalia
  2022-05-05T10:18:53UTC 2022-05-05T00:18:53-10:00 2022-05-05T00:18:53-10:00 -14.98401 -146.61508     183   3.4 Hōkūleʻa
  2022-05-05T10:10:50UTC 2022-05-05T00:10:50-10:00 2022-05-05T00:10:50-10:00 -14.96602 -146.61791     184   3.5 Hikianalia
  2022-05-05T09:17:41UTC 2022-05-04T23:17:41-10:00 2022-05-04T23:17:41-10:00 -14.92533 -146.61227     182   4.1 Hōkūleʻa
  2022-05-05T09:10:20UTC 2022-05-04T23:10:20-10:00 2022-05-04T23:10:20-10:00 -14.90717 -146.61351     181   4.1 Hikianalia
  2022-05-05T08:18:30UTC 2022-05-04T22:18:30-10:00 2022-05-04T22:18:30-10:00 -14.85829 -146.61006     178   4.3 Hōkūleʻa
  2022-05-05T08:10:17UTC 2022-05-04T22:10:17-10:00 2022-05-04T22:10:17-10:00 -14.83882 -146.61236     172   4.0 Hikianalia
  2022-05-05T07:18:29UTC 2022-05-04T21:18:29-10:00 2022-05-04T21:18:29-10:00 -14.78690 -146.61274     164   5.4 Hōkūleʻa
  2022-05-05T07:10:19UTC 2022-05-04T21:10:19-10:00 2022-05-04T21:10:19-10:00 -14.77173 -146.62167     167   5.2 Hikianalia
  2022-05-05T06:18:52UTC 2022-05-04T20:18:52-10:00 2022-05-04T20:18:52-10:00 -14.70068 -146.63737     167   7.9 Hōkūleʻa
  2022-05-05T06:10:48UTC 2022-05-04T20:10:48-10:00 2022-05-04T20:10:48-10:00 -14.68681 -146.64186     168   8.1 Hikianalia
  2022-05-05T05:18:36UTC 2022-05-04T19:18:36-10:00 2022-05-04T19:18:36-10:00 -14.57155 -146.66821     169   8.9 Hōkūleʻa
  2022-05-05T05:10:18UTC 2022-05-04T19:10:18-10:00 2022-05-04T19:10:18-10:00 -14.55252 -146.67216     172   8.9 Hikianalia
  2022-05-05T04:18:35UTC 2022-05-04T18:18:35-10:00 2022-05-04T18:18:35-10:00 -14.42476 -146.69733     189   9.0 Hōkūleʻa
  2022-05-05T04:10:29UTC 2022-05-04T18:10:29-10:00 2022-05-04T18:10:29-10:00 -14.40518 -146.69417     189   8.9 Hikianalia
  2022-05-05T03:18:38UTC 2022-05-04T17:18:38-10:00 2022-05-04T17:18:38-10:00 -14.27674 -146.67310     193   8.9 Hōkūleʻa
  2022-05-05T03:10:20UTC 2022-05-04T17:10:20-10:00 2022-05-04T17:10:20-10:00 -14.25722 -146.67147     195   9.0 Hikianalia
  2022-05-05T02:18:44UTC 2022-05-04T16:18:44-10:00 2022-05-04T16:18:44-10:00 -14.13203 -146.63768     190   8.9 Hōkūleʻa
  2022-05-05T02:10:51UTC 2022-05-04T16:10:51-10:00 2022-05-04T16:10:51-10:00 -14.11372 -146.63184     190   9.0 Hikianalia
  2022-05-05T01:17:43UTC 2022-05-04T15:17:43-10:00 2022-05-04T15:17:43-10:00 -13.98347 -146.61105     200   9.2 Hōkūleʻa
  2022-05-05T01:10:21UTC 2022-05-04T15:10:21-10:00 2022-05-04T15:10:21-10:00 -13.96490 -146.60412     199   9.1 Hikianalia
  2022-05-05T00:18:32UTC 2022-05-04T14:18:32-10:00 2022-05-04T14:18:32-10:00 -13.84103 -146.55856     200   8.6 Hōkūleʻa
  2022-05-05T00:10:19UTC 2022-05-04T14:10:19-10:00 2022-05-04T14:10:19-10:00 -13.82137 -146.55270     202   8.4 Hikianalia
  2022-05-04T23:17:38UTC 2022-05-04T13:17:38-10:00 2022-05-04T13:17:38-10:00 -13.70415 -146.50788     212   4.7 Hōkūleʻa
  2022-05-04T23:09:17UTC 2022-05-04T13:09:17-10:00 2022-05-04T13:09:17-10:00 -13.68889 -146.49891     206   3.9 Hikianalia
  2022-05-04T22:18:52UTC 2022-05-04T12:18:52-10:00 2022-05-04T12:18:52-10:00 -13.63840 -146.46548     174   4.4 Hōkūleʻa
  2022-05-04T22:09:40UTC 2022-05-04T12:09:40-10:00 2022-05-04T12:09:40-10:00 -13.62977 -146.46990     169   4.7 Hikianalia
  2022-05-04T21:17:36UTC 2022-05-04T11:17:36-10:00 2022-05-04T11:17:36-10:00 -13.56435 -146.47329     159   5.6 Hōkūleʻa
  2022-05-04T21:09:10UTC 2022-05-04T11:09:10-10:00 2022-05-04T11:09:10-10:00 -13.55260 -146.48556     162   5.6 Hikianalia
  2022-05-04T20:18:39UTC 2022-05-04T10:18:39-10:00 2022-05-04T10:18:39-10:00 -13.47812 -146.50786     163   5.9 Hōkūleʻa
  2022-05-04T20:10:17UTC 2022-05-04T10:10:17-10:00 2022-05-04T10:10:17-10:00 -13.46571 -146.51455     162   6.0 Hikianalia
  2022-05-04T19:17:56UTC 2022-05-04T09:17:56-10:00 2022-05-04T09:17:56-10:00 -13.38213 -146.53794     167   6.3 Hōkūleʻa
  2022-05-04T19:09:20UTC 2022-05-04T09:09:20-10:00 2022-05-04T09:09:20-10:00 -13.36855 -146.54715     171   7.7 Hikianalia
  2022-05-04T18:20:17UTC 2022-05-04T08:20:17-10:00 2022-05-04T08:20:17-10:00 -13.26450 -146.56416     173   5.3 Hikianalia
  2022-05-04T18:18:49UTC 2022-05-04T08:18:49-10:00 2022-05-04T08:18:49-10:00 -13.28027 -146.56199     174   6.9 Hōkūleʻa
  2022-05-04T17:27:27UTC 2022-05-04T07:27:27-10:00 2022-05-04T07:27:27-10:00 -13.18181 -146.57292     175   4.6 Hōkūleʻa
  2022-05-04T17:10:14UTC 2022-05-04T07:10:14-10:00 2022-05-04T07:10:14-10:00 -13.16129 -146.57755     172   5.2 Hikianalia
  2022-05-04T16:18:38UTC 2022-05-04T06:18:38-10:00 2022-05-04T06:18:38-10:00 -13.09313 -146.58133     173   5.3 Hōkūleʻa
  2022-05-04T16:10:21UTC 2022-05-04T06:10:21-10:00 2022-05-04T06:10:21-10:00 -13.07503 -146.58922     175   5.4 Hikianalia
  2022-05-04T15:18:35UTC 2022-05-04T05:18:35-10:00 2022-05-04T05:18:35-10:00 -13.00449 -146.59319     176   5.3 Hōkūleʻa
  2022-05-04T15:10:18UTC 2022-05-04T05:10:18-10:00 2022-05-04T05:10:18-10:00 -12.98537 -146.59723     178   5.2 Hikianalia
  2022-05-04T14:18:40UTC 2022-05-04T04:18:40-10:00 2022-05-04T04:18:40-10:00 -12.91531 -146.60008     175   4.9 Hōkūleʻa
  2022-05-04T14:10:47UTC 2022-05-04T04:10:47-10:00 2022-05-04T04:10:47-10:00 -12.89868 -146.60096     167   4.8 Hikianalia
  2022-05-04T13:18:40UTC 2022-05-04T03:18:40-10:00 2022-05-04T03:18:40-10:00 -12.83368 -146.60768     153   4.3 Hōkūleʻa
  2022-05-04T13:10:14UTC 2022-05-04T03:10:14-10:00 2022-05-04T03:10:14-10:00 -12.81894 -146.61939     162   4.6 Hikianalia
  2022-05-04T12:18:31UTC 2022-05-04T02:18:31-10:00 2022-05-04T02:18:31-10:00 -12.76911 -146.64171     173   4.7 Hōkūleʻa
  2022-05-04T12:10:11UTC 2022-05-04T02:10:11-10:00 2022-05-04T02:10:11-10:00 -12.74638 -146.64388     167   4.6 Hikianalia
  2022-05-04T11:18:36UTC 2022-05-04T01:18:36-10:00 2022-05-04T01:18:36-10:00 -12.69127 -146.65207     169   5.2 Hōkūleʻa
  2022-05-04T11:10:09UTC 2022-05-04T01:10:09-10:00 2022-05-04T01:10:09-10:00 -12.67106 -146.66115     172   5.1 Hikianalia
  2022-05-04T10:18:52UTC 2022-05-04T00:18:52-10:00 2022-05-04T00:18:52-10:00 -12.60598 -146.66872     181   4.7 Hōkūleʻa
  2022-05-04T10:10:50UTC 2022-05-04T00:10:50-10:00 2022-05-04T00:10:50-10:00 -12.58694 -146.67274     181   4.9 Hikianalia
  2022-05-04T09:18:40UTC 2022-05-03T23:18:40-10:00 2022-05-03T23:18:40-10:00 -12.52720 -146.66720     178   5.0 Hōkūleʻa
  2022-05-04T09:10:20UTC 2022-05-03T23:10:20-10:00 2022-05-03T23:10:20-10:00 -12.50357 -146.67070     177   5.3 Hikianalia
  2022-05-04T08:18:30UTC 2022-05-03T22:18:30-10:00 2022-05-03T22:18:30-10:00 -12.44278 -146.66988     174   5.7 Hōkūleʻa
  2022-05-04T08:10:26UTC 2022-05-03T22:10:26-10:00 2022-05-03T22:10:26-10:00 -12.41495 -146.67546     175   4.8 Hikianalia
  2022-05-04T07:18:41UTC 2022-05-03T21:18:41-10:00 2022-05-03T21:18:41-10:00 -12.34849 -146.67986     176   4.6 Hōkūleʻa
  2022-05-04T07:10:22UTC 2022-05-03T21:10:22-10:00 2022-05-03T21:10:22-10:00 -12.33554 -146.68289     175   4.7 Hikianalia
  2022-05-04T06:18:50UTC 2022-05-03T20:18:50-10:00 2022-05-03T20:18:50-10:00 -12.27192 -146.68546     181   5.7 Hōkūleʻa
  2022-05-04T06:10:46UTC 2022-05-03T20:10:46-10:00 2022-05-03T20:10:46-10:00 -12.25703 -146.68997     181   4.9 Hikianalia
  2022-05-04T05:25:44UTC 2022-05-03T19:25:44-10:00 2022-05-03T19:25:44-10:00 -12.18785 -146.68409     183   4.5 Hōkūleʻa
  2022-05-04T05:10:17UTC 2022-05-03T19:10:17-10:00 2022-05-03T19:10:17-10:00 -12.17375 -146.68810     185   5.1 Hikianalia
  2022-05-04T04:18:35UTC 2022-05-03T18:18:35-10:00 2022-05-03T18:18:35-10:00 -12.10385 -146.67978     187   4.9 Hōkūleʻa
  2022-05-04T04:10:22UTC 2022-05-03T18:10:22-10:00 2022-05-03T18:10:22-10:00 -12.08807 -146.68048     186   4.9 Hikianalia
  2022-05-04T03:18:32UTC 2022-05-03T17:18:32-10:00 2022-05-03T17:18:32-10:00 -12.02241 -146.66976     177   6.3 Hōkūleʻa
  2022-05-04T03:10:12UTC 2022-05-03T17:10:12-10:00 2022-05-03T17:10:12-10:00 -12.00680 -146.67235     182   5.6 Hikianalia
  2022-05-04T02:26:35UTC 2022-05-03T16:26:35-10:00 2022-05-03T16:26:35-10:00 -11.93172 -146.67463     176   4.7 Hōkūleʻa
  2022-05-04T02:09:53UTC 2022-05-03T16:09:53-10:00 2022-05-03T16:09:53-10:00 -11.91228 -146.66843     174   5.3 Hikianalia
  2022-05-04T01:18:38UTC 2022-05-03T15:18:38-10:00 2022-05-03T15:18:38-10:00 -11.84377 -146.68141     170   5.8 Hōkūleʻa
  2022-05-04T01:10:20UTC 2022-05-03T15:10:20-10:00 2022-05-03T15:10:20-10:00 -11.82490 -146.67802     171   5.7 Hikianalia
  2022-05-04T00:17:30UTC 2022-05-03T14:17:30-10:00 2022-05-03T14:17:30-10:00 -11.74580 -146.69814     182   4.9 Hōkūleʻa
  2022-05-04T00:10:20UTC 2022-05-03T14:10:20-10:00 2022-05-03T14:10:20-10:00 -11.72996 -146.69379     175   4.7 Hikianalia
  2022-05-03T23:18:35UTC 2022-05-03T13:18:35-10:00 2022-05-03T13:18:35-10:00 -11.66599 -146.69555     162   5.9 Hōkūleʻa
  2022-05-03T23:09:17UTC 2022-05-03T13:09:17-10:00 2022-05-03T13:09:17-10:00 -11.64996 -146.70027     164   6.2 Hikianalia
  2022-05-03T22:17:50UTC 2022-05-03T12:17:50-10:00 2022-05-03T12:17:50-10:00 -11.57149 -146.72720     166   9.2 Hōkūleʻa
  2022-05-03T22:09:51UTC 2022-05-03T12:09:51-10:00 2022-05-03T12:09:51-10:00 -11.55089 -146.72911     166   6.0 Hikianalia
  2022-05-03T21:37:30UTC 2022-05-03T11:37:30-10:00 2022-05-03T11:37:30-10:00 -11.47151 -146.75239     176   3.6 Hōkūleʻa
  2022-05-03T21:09:20UTC 2022-05-03T11:09:20-10:00 2022-05-03T11:09:20-10:00 -11.45213 -146.75335     175   4.0 Hikianalia
  2022-05-03T20:18:38UTC 2022-05-03T10:18:38-10:00 2022-05-03T10:18:38-10:00 -11.39362 -146.75857     156   5.9 Hōkūleʻa
  2022-05-03T20:09:16UTC 2022-05-03T10:09:16-10:00 2022-05-03T10:09:16-10:00 -11.38470 -146.75887     157   6.1 Hikianalia
  2022-05-03T19:29:04UTC 2022-05-03T09:29:04-10:00 2022-05-03T09:29:04-10:00 -11.31945 -146.79281     161   5.1 Hōkūleʻa
  2022-05-03T19:10:12UTC 2022-05-03T09:10:12-10:00 2022-05-03T09:10:12-10:00 -11.29243 -146.79794     166   5.5 Hikianalia
  2022-05-03T18:18:51UTC 2022-05-03T08:18:51-10:00 2022-05-03T08:18:51-10:00 -11.22455 -146.82565     165   4.6 Hōkūleʻa
  2022-05-03T18:10:49UTC 2022-05-03T08:10:49-10:00 2022-05-03T08:10:49-10:00 -11.20396 -146.81966     166   4.3 Hikianalia
  2022-05-03T17:18:29UTC 2022-05-03T07:18:29-10:00 2022-05-03T07:18:29-10:00 -11.14993 -146.84524     173   4.3 Hōkūleʻa
  2022-05-03T17:10:11UTC 2022-05-03T07:10:11-10:00 2022-05-03T07:10:11-10:00 -11.13278 -146.83783     162   4.9 Hikianalia
  2022-05-03T16:18:36UTC 2022-05-03T06:18:36-10:00 2022-05-03T06:18:36-10:00 -11.07891 -146.85468     158   5.1 Hōkūleʻa
  2022-05-03T16:10:21UTC 2022-05-03T06:10:21-10:00 2022-05-03T06:10:21-10:00 -11.05567 -146.86309     160   4.4 Hikianalia
  2022-05-03T15:18:35UTC 2022-05-03T05:18:35-10:00 2022-05-03T05:18:35-10:00 -10.99963 -146.88639     182   2.7 Hōkūleʻa
  2022-05-03T15:10:18UTC 2022-05-03T05:10:18-10:00 2022-05-03T05:10:18-10:00 -10.98715 -146.88892     175   3.2 Hikianalia
  2022-05-03T14:18:51UTC 2022-05-03T04:18:51-10:00 2022-05-03T04:18:51-10:00 -10.95465 -146.88497     174   4.7 Hōkūleʻa
  2022-05-03T14:10:52UTC 2022-05-03T04:10:52-10:00 2022-05-03T04:10:52-10:00 -10.93361 -146.89362     170   4.7 Hikianalia
  2022-05-03T13:18:41UTC 2022-05-03T03:18:41-10:00 2022-05-03T03:18:41-10:00 -10.87669 -146.89294     161   4.7 Hōkūleʻa
  2022-05-03T13:10:12UTC 2022-05-03T03:10:12-10:00 2022-05-03T03:10:12-10:00 -10.85443 -146.90710     162   4.0 Hikianalia
  2022-05-03T12:18:41UTC 2022-05-03T02:18:41-10:00 2022-05-03T02:18:41-10:00 -10.80201 -146.91909     168   4.1 Hōkūleʻa
  2022-05-03T12:10:20UTC 2022-05-03T02:10:20-10:00 2022-05-03T02:10:20-10:00 -10.79128 -146.92742     170   4.9 Hikianalia
  2022-05-03T11:18:42UTC 2022-05-03T01:18:42-10:00 2022-05-03T01:18:42-10:00 -10.73540 -146.93379     175   5.0 Hōkūleʻa
  2022-05-03T11:09:19UTC 2022-05-03T01:09:19-10:00 2022-05-03T01:09:19-10:00 -10.70996 -146.94244     181   5.4 Hikianalia
  2022-05-03T10:18:44UTC 2022-05-03T00:18:44-10:00 2022-05-03T00:18:44-10:00 -10.65189 -146.94130     182   5.3 Hōkūleʻa
  2022-05-03T10:10:41UTC 2022-05-03T00:10:41-10:00 2022-05-03T00:10:41-10:00 -10.62108 -146.94059     179   5.2 Hikianalia
  2022-05-03T09:18:40UTC 2022-05-02T23:18:40-10:00 2022-05-02T23:18:40-10:00 -10.56274 -146.93740     181   4.7 Hōkūleʻa
  2022-05-03T09:10:17UTC 2022-05-02T23:10:17-10:00 2022-05-02T23:10:17-10:00 -10.53411 -146.94216     181   4.0 Hikianalia
  2022-05-03T08:18:29UTC 2022-05-02T22:18:29-10:00 2022-05-02T22:18:29-10:00 -10.48359 -146.93546     171   5.4 Hōkūleʻa
  2022-05-03T08:10:14UTC 2022-05-02T22:10:14-10:00 2022-05-02T22:10:14-10:00 -10.46661 -146.94068     168   6.1 Hikianalia
  2022-05-03T07:18:52UTC 2022-05-02T21:18:52-10:00 2022-05-02T21:18:52-10:00 -10.39542 -146.94984     163   5.1 Hōkūleʻa
  2022-05-03T07:10:13UTC 2022-05-02T21:10:13-10:00 2022-05-02T21:10:13-10:00 -10.36635 -146.96134     164   4.6 Hikianalia
  2022-05-03T06:18:40UTC 2022-05-02T20:18:40-10:00 2022-05-02T20:18:40-10:00 -10.31309 -146.97469     173   3.7 Hōkūleʻa
  2022-05-03T06:10:48UTC 2022-05-02T20:10:48-10:00 2022-05-02T20:10:48-10:00 -10.29336 -146.98237     174   3.1 Hikianalia
  2022-05-03T05:18:29UTC 2022-05-02T19:18:29-10:00 2022-05-02T19:18:29-10:00 -10.25202 -146.98209     177   2.8 Hōkūleʻa
  2022-05-03T05:10:24UTC 2022-05-02T19:10:24-10:00 2022-05-02T19:10:24-10:00 -10.24078 -146.98827     186   2.5 Hikianalia
  2022-05-03T04:18:50UTC 2022-05-02T18:18:50-10:00 2022-05-02T18:18:50-10:00 -10.20510 -146.98437     190   3.2 Hōkūleʻa
  2022-05-03T04:10:20UTC 2022-05-02T18:10:20-10:00 2022-05-02T18:10:20-10:00 -10.19913 -146.98409     187   3.6 Hikianalia
  2022-05-03T03:18:39UTC 2022-05-02T17:18:39-10:00 2022-05-02T17:18:39-10:00 -10.15158 -146.97512     177   3.8 Hōkūleʻa
  2022-05-03T03:10:12UTC 2022-05-02T17:10:12-10:00 2022-05-02T17:10:12-10:00 -10.13939 -146.97643     175   5.1 Hikianalia
  2022-05-03T02:17:35UTC 2022-05-02T16:17:35-10:00 2022-05-02T16:17:35-10:00 -10.08614 -146.97827     181   3.8 Hōkūleʻa
  2022-05-03T02:09:48UTC 2022-05-02T16:09:48-10:00 2022-05-02T16:09:48-10:00 -10.05455 -146.98445     173   3.6 Hikianalia
  2022-05-03T01:18:33UTC 2022-05-02T15:18:33-10:00 2022-05-02T15:18:33-10:00 -10.02387 -146.97750     168   5.0 Hōkūleʻa
  2022-05-03T01:10:22UTC 2022-05-02T15:10:22-10:00 2022-05-02T15:10:22-10:00  -9.99488 -146.99136     161   5.2 Hikianalia
  2022-05-03T00:17:59UTC 2022-05-02T14:17:59-10:00 2022-05-02T14:17:59-10:00  -9.94093 -146.99488     156   7.2 Hōkūleʻa
  2022-05-03T00:09:21UTC 2022-05-02T14:09:21-10:00 2022-05-02T14:09:21-10:00  -9.91185 -147.02022     164   5.2 Hikianalia
  2022-05-02T23:28:27UTC 2022-05-02T13:28:27-10:00 2022-05-02T13:28:27-10:00  -9.85071 -147.03582     162   4.5 Hōkūleʻa
  2022-05-02T23:10:18UTC 2022-05-02T13:10:18-10:00 2022-05-02T13:10:18-10:00  -9.82882 -147.04423     157   5.7 Hikianalia
  2022-05-02T22:17:35UTC 2022-05-02T12:17:35-10:00 2022-05-02T12:17:35-10:00  -9.76670 -147.06387     157   5.2 Hōkūleʻa
  2022-05-02T22:15:07UTC 2022-05-02T12:15:07-10:00 2022-05-02T12:15:07-10:00  -9.74797 -147.07837     162   4.4 Hikianalia
  2022-05-02T21:17:41UTC 2022-05-02T11:17:41-10:00 2022-05-02T11:17:41-10:00  -9.68568 -147.09777     171   4.9 Hōkūleʻa
  2022-05-02T21:09:14UTC 2022-05-02T11:09:14-10:00 2022-05-02T11:09:14-10:00  -9.67143 -147.10367     175   5.5 Hikianalia
  2022-05-02T20:17:39UTC 2022-05-02T10:17:39-10:00 2022-05-02T10:17:39-10:00  -9.60396 -147.11116     177   5.6 Hōkūleʻa
  2022-05-02T20:09:14UTC 2022-05-02T10:09:14-10:00 2022-05-02T10:09:14-10:00  -9.57925 -147.11163     181   5.2 Hikianalia
  2022-05-02T19:18:32UTC 2022-05-02T09:18:32-10:00 2022-05-02T09:18:32-10:00  -9.51151 -147.11595     174   6.1 Hōkūleʻa
  2022-05-02T19:10:11UTC 2022-05-02T09:10:11-10:00 2022-05-02T09:10:11-10:00  -9.49391 -147.11075     173   7.6 Hikianalia
  2022-05-02T18:20:16UTC 2022-05-02T08:20:16-10:00 2022-05-02T08:20:16-10:00  -9.38926 -147.12328     174   5.5 Hikianalia
  2022-05-02T18:18:33UTC 2022-05-02T08:18:33-10:00 2022-05-02T08:18:33-10:00  -9.40915 -147.12697     176   6.5 Hōkūleʻa
  2022-05-02T17:18:32UTC 2022-05-02T07:18:32-10:00 2022-05-02T07:18:32-10:00  -9.30104 -147.13438     172   6.2 Hōkūleʻa
  2022-05-02T17:10:19UTC 2022-05-02T07:10:19-10:00 2022-05-02T07:10:19-10:00  -9.28222 -147.13414     169   6.6 Hikianalia
  2022-05-02T16:18:43UTC 2022-05-02T06:18:43-10:00 2022-05-02T06:18:43-10:00  -9.19824 -147.14837     164   6.3 Hōkūleʻa
  2022-05-02T16:10:20UTC 2022-05-02T06:10:20-10:00 2022-05-02T06:10:20-10:00  -9.17401 -147.15487     159   6.6 Hikianalia
  2022-05-02T15:18:41UTC 2022-05-02T05:18:41-10:00 2022-05-02T05:18:41-10:00  -9.09773 -147.17796     162   6.4 Hōkūleʻa
  2022-05-02T15:10:12UTC 2022-05-02T05:10:12-10:00 2022-05-02T05:10:12-10:00  -9.07019 -147.19444     169   5.6 Hikianalia
  2022-05-02T14:18:40UTC 2022-05-02T04:18:40-10:00 2022-05-02T04:18:40-10:00  -8.99624 -147.21160     180   5.6 Hōkūleʻa
  2022-05-02T14:10:53UTC 2022-05-02T04:10:53-10:00 2022-05-02T04:10:53-10:00  -8.97904 -147.21274     177   5.9 Hikianalia
  2022-05-02T13:18:37UTC 2022-05-02T03:18:37-10:00 2022-05-02T03:18:37-10:00  -8.90266 -147.21191     174   6.1 Hōkūleʻa
  2022-05-02T13:10:08UTC 2022-05-02T03:10:08-10:00 2022-05-02T03:10:08-10:00  -8.87862 -147.21787     180   6.0 Hikianalia
  2022-05-02T12:18:51UTC 2022-05-02T02:18:51-10:00 2022-05-02T02:18:51-10:00  -8.80181 -147.22285     191   5.6 Hōkūleʻa
  2022-05-02T12:10:28UTC 2022-05-02T02:10:28-10:00 2022-05-02T02:10:28-10:00  -8.77843 -147.21787     193   5.3 Hikianalia
  2022-05-02T11:18:32UTC 2022-05-02T01:18:32-10:00 2022-05-02T01:18:32-10:00  -8.70980 -147.20538     185   6.3 Hōkūleʻa
  2022-05-02T11:10:26UTC 2022-05-02T01:10:26-10:00 2022-05-02T01:10:26-10:00  -8.69177 -147.19828     181   6.6 Hikianalia
  2022-05-02T10:19:41UTC 2022-05-02T00:19:41-10:00 2022-05-02T00:19:41-10:00  -8.60693 -147.19637     181   6.2 Hōkūleʻa
  2022-05-02T10:10:49UTC 2022-05-02T00:10:49-10:00 2022-05-02T00:10:49-10:00  -8.58260 -147.19590     180   6.1 Hikianalia
  2022-05-02T09:18:36UTC 2022-05-01T23:18:36-10:00 2022-05-01T23:18:36-10:00  -8.50106 -147.19517     179   6.9 Hōkūleʻa
  2022-05-02T09:10:16UTC 2022-05-01T23:10:16-10:00 2022-05-01T23:10:16-10:00  -8.47978 -147.19553     177   6.9 Hikianalia
  2022-05-02T08:18:52UTC 2022-05-01T22:18:52-10:00 2022-05-01T22:18:52-10:00  -8.38590 -147.19712     173   7.6 Hōkūleʻa
  2022-05-02T08:10:19UTC 2022-05-01T22:10:19-10:00 2022-05-01T22:10:19-10:00  -8.36482 -147.20130     175   7.6 Hikianalia
  2022-05-02T07:18:36UTC 2022-05-01T21:18:36-10:00 2022-05-01T21:18:36-10:00  -8.25817 -147.21248     172   7.6 Hōkūleʻa
  2022-05-02T07:09:21UTC 2022-05-01T21:09:21-10:00 2022-05-01T21:09:21-10:00  -8.23617 -147.21321     171   7.9 Hikianalia
  2022-05-02T06:18:39UTC 2022-05-01T20:18:39-10:00 2022-05-01T20:18:39-10:00  -8.13274 -147.23019     171   7.8 Hōkūleʻa
  2022-05-02T06:10:41UTC 2022-05-01T20:10:41-10:00 2022-05-01T20:10:41-10:00  -8.10864 -147.23330     173   8.1 Hikianalia
  2022-05-02T05:18:39UTC 2022-05-01T19:18:39-10:00 2022-05-01T19:18:39-10:00  -8.00296 -147.24993     173   7.3 Hōkūleʻa
  2022-05-02T05:10:09UTC 2022-05-01T19:10:09-10:00 2022-05-01T19:10:09-10:00  -7.97297 -147.24924     172   6.7 Hikianalia
  2022-05-02T04:18:51UTC 2022-05-01T18:18:51-10:00 2022-05-01T18:18:51-10:00  -7.88135 -147.26388     178   6.8 Hōkūleʻa
  2022-05-02T04:09:12UTC 2022-05-01T18:09:12-10:00 2022-05-01T18:09:12-10:00  -7.86038 -147.26538     179   7.3 Hikianalia
  2022-05-02T03:18:33UTC 2022-05-01T17:18:33-10:00 2022-05-01T17:18:33-10:00  -7.76650 -147.26718     179   6.5 Hōkūleʻa
  2022-05-02T03:10:11UTC 2022-05-01T17:10:11-10:00 2022-05-01T17:10:11-10:00  -7.73980 -147.26662     181   5.9 Hikianalia
  2022-05-02T02:18:36UTC 2022-05-01T16:18:36-10:00 2022-05-01T16:18:36-10:00  -7.65830 -147.26947     184   5.9 Hōkūleʻa
  2022-05-02T02:10:49UTC 2022-05-01T16:10:49-10:00 2022-05-01T16:10:49-10:00  -7.64163 -147.26574     183   6.3 Hikianalia
  2022-05-02T01:17:40UTC 2022-05-01T15:17:40-10:00 2022-05-01T15:17:40-10:00  -7.55830 -147.26276     182   6.4 Hōkūleʻa
  2022-05-02T01:10:17UTC 2022-05-01T15:10:17-10:00 2022-05-01T15:10:17-10:00  -7.53554 -147.26021     185   6.0 Hikianalia
  2022-05-02T00:18:41UTC 2022-05-01T14:18:41-10:00 2022-05-01T14:18:41-10:00  -7.45233 -147.25997     191   6.4 Hōkūleʻa
  2022-05-02T00:09:16UTC 2022-05-01T14:09:16-10:00 2022-05-01T14:09:16-10:00  -7.43420 -147.25162     192   6.9 Hikianalia
  2022-05-01T23:17:36UTC 2022-05-01T13:17:36-10:00 2022-05-01T13:17:36-10:00  -7.34488 -147.23918     194   6.0 Hōkūleʻa
  2022-05-01T23:10:17UTC 2022-05-01T13:10:17-10:00 2022-05-01T13:10:17-10:00  -7.32357 -147.22800     192   5.3 Hikianalia
  2022-05-01T22:18:33UTC 2022-05-01T12:18:33-10:00 2022-05-01T12:18:33-10:00  -7.24906 -147.21568     187   2.8 Hōkūleʻa
  2022-05-01T22:09:46UTC 2022-05-01T12:09:46-10:00 2022-05-01T12:09:46-10:00  -7.23543 -147.20924     189   2.5 Hikianalia
  2022-05-01T21:17:31UTC 2022-05-01T11:17:31-10:00 2022-05-01T11:17:31-10:00  -7.20252 -147.20957     185   4.1 Hōkūleʻa
  2022-05-01T21:09:10UTC 2022-05-01T11:09:10-10:00 2022-05-01T11:09:10-10:00  -7.19347 -147.20285     183   5.5 Hikianalia
  2022-05-01T20:18:51UTC 2022-05-01T10:18:51-10:00 2022-05-01T10:18:51-10:00  -7.13500 -147.20326     181   7.2 Hōkūleʻa
  2022-05-01T20:10:16UTC 2022-05-01T10:10:16-10:00 2022-05-01T10:10:16-10:00  -7.10381 -147.19843     180   7.6 Hikianalia
  2022-05-01T19:17:41UTC 2022-05-01T09:17:41-10:00 2022-05-01T09:17:41-10:00  -7.01288 -147.20081     180   7.3 Hōkūleʻa
  2022-05-01T19:10:18UTC 2022-05-01T09:10:18-10:00 2022-05-01T09:10:18-10:00  -6.97620 -147.19907     181   6.8 Hikianalia
  2022-05-01T18:18:37UTC 2022-05-01T08:18:37-10:00 2022-05-01T08:18:37-10:00  -6.89236 -147.20105     180   6.6 Hōkūleʻa
  2022-05-01T18:09:47UTC 2022-05-01T08:09:47-10:00 2022-05-01T08:09:47-10:00  -6.86189 -147.19630     177   6.5 Hikianalia
  2022-05-01T17:18:31UTC 2022-05-01T07:18:31-10:00 2022-05-01T07:18:31-10:00  -6.78226 -147.20025     173   7.0 Hōkūleʻa
  2022-05-01T17:10:16UTC 2022-05-01T07:10:16-10:00 2022-05-01T07:10:16-10:00  -6.75375 -147.20236     171   6.5 Hikianalia
  2022-05-01T16:18:49UTC 2022-05-01T06:18:49-10:00 2022-05-01T06:18:49-10:00  -6.66636 -147.21418     148   5.0 Hōkūleʻa
  2022-05-01T16:09:10UTC 2022-05-01T06:09:10-10:00 2022-05-01T06:09:10-10:00  -6.64445 -147.21924     142   5.6 Hikianalia
  2022-05-01T15:18:32UTC 2022-05-01T05:18:32-10:00 2022-05-01T05:18:32-10:00  -6.59448 -147.25855     141   5.8 Hōkūleʻa
  2022-05-01T15:11:10UTC 2022-05-01T05:11:10-10:00 2022-05-01T05:11:10-10:00  -6.57312 -147.27460     140   5.4 Hikianalia
  2022-05-01T14:18:39UTC 2022-05-01T04:18:39-10:00 2022-05-01T04:18:39-10:00  -6.51955 -147.31930     138   6.8 Hōkūleʻa
  2022-05-01T14:10:50UTC 2022-05-01T04:10:50-10:00 2022-05-01T04:10:50-10:00  -6.50260 -147.33314     138   6.0 Hikianalia
  2022-05-01T13:26:21UTC 2022-05-01T03:26:21-10:00 2022-05-01T03:26:21-10:00  -6.44613 -147.38597     145   5.2 Hōkūleʻa
  2022-05-01T13:09:20UTC 2022-05-01T03:09:20-10:00 2022-05-01T03:09:20-10:00  -6.42609 -147.40159     145   6.1 Hikianalia
  2022-05-01T12:18:42UTC 2022-05-01T02:18:42-10:00 2022-05-01T02:18:42-10:00  -6.36603 -147.44191     143   5.9 Hōkūleʻa
  2022-05-01T12:10:12UTC 2022-05-01T02:10:12-10:00 2022-05-01T02:10:12-10:00  -6.34373 -147.45927     144   5.8 Hikianalia
  2022-05-01T11:18:30UTC 2022-05-01T01:18:30-10:00 2022-05-01T01:18:30-10:00  -6.28650 -147.50079     142   5.7 Hōkūleʻa
  2022-05-01T11:10:09UTC 2022-05-01T01:10:09-10:00 2022-05-01T01:10:09-10:00  -6.26505 -147.51673     145   5.6 Hikianalia
  2022-05-01T10:18:38UTC 2022-05-01T00:18:38-10:00 2022-05-01T00:18:38-10:00  -6.21190 -147.55952     148   5.6 Hōkūleʻa
  2022-05-01T10:10:49UTC 2022-05-01T00:10:49-10:00 2022-05-01T00:10:49-10:00  -6.18856 -147.57027     146   5.9 Hikianalia
  2022-05-01T09:18:40UTC 2022-04-30T23:18:40-10:00 2022-04-30T23:18:40-10:00  -6.13271 -147.60874     149   5.9 Hōkūleʻa
  2022-05-01T09:10:21UTC 2022-04-30T23:10:21-10:00 2022-04-30T23:10:21-10:00  -6.10543 -147.62649     150   6.2 Hikianalia
  2022-05-01T08:18:48UTC 2022-04-30T22:18:48-10:00 2022-04-30T22:18:48-10:00  -6.04820 -147.66031     152   6.1 Hōkūleʻa
  2022-05-01T08:10:17UTC 2022-04-30T22:10:17-10:00 2022-04-30T22:10:17-10:00  -6.01542 -147.67827     151   6.0 Hikianalia
  2022-05-01T07:18:35UTC 2022-04-30T21:18:35-10:00 2022-04-30T21:18:35-10:00  -5.95843 -147.70856     150   5.9 Hōkūleʻa
  2022-05-01T07:10:19UTC 2022-04-30T21:10:19-10:00 2022-04-30T21:10:19-10:00  -5.92706 -147.72670     150   5.6 Hikianalia
  2022-05-01T06:18:25UTC 2022-04-30T20:18:25-10:00 2022-04-30T20:18:25-10:00  -5.87223 -147.75820     151   5.8 Hōkūleʻa
  2022-05-01T06:10:46UTC 2022-04-30T20:10:46-10:00 2022-04-30T20:10:46-10:00  -5.84668 -147.77259     152   5.6 Hikianalia
  2022-05-01T05:18:29UTC 2022-04-30T19:18:29-10:00 2022-04-30T19:18:29-10:00  -5.78675 -147.80469     152   6.1 Hōkūleʻa
  2022-05-01T05:10:16UTC 2022-04-30T19:10:16-10:00 2022-04-30T19:10:16-10:00  -5.76361 -147.81712     152   5.8 Hikianalia
  2022-05-01T04:18:54UTC 2022-04-30T18:18:54-10:00 2022-04-30T18:18:54-10:00  -5.69725 -147.85218     149   6.3 Hōkūleʻa
  2022-05-01T04:10:20UTC 2022-04-30T18:10:20-10:00 2022-04-30T18:10:20-10:00  -5.67813 -147.86201     150   6.2 Hikianalia
  2022-05-01T03:18:40UTC 2022-04-30T17:18:40-10:00 2022-04-30T17:18:40-10:00  -5.60587 -147.90608     151   6.2 Hōkūleʻa
  2022-05-01T03:10:21UTC 2022-04-30T17:10:21-10:00 2022-04-30T17:10:21-10:00  -5.58746 -147.91344     150   6.2 Hikianalia
  2022-05-01T02:17:40UTC 2022-04-30T16:17:40-10:00 2022-04-30T16:17:40-10:00  -5.51298 -147.95655     149   6.3 Hōkūleʻa
  2022-05-01T02:09:49UTC 2022-04-30T16:09:49-10:00 2022-04-30T16:09:49-10:00  -5.49710 -147.96494     145   7.3 Hikianalia
  2022-05-01T01:18:27UTC 2022-04-30T15:18:27-10:00 2022-04-30T15:18:27-10:00  -5.42438 -148.01015     153   6.1 Hōkūleʻa
  2022-05-01T01:10:13UTC 2022-04-30T15:10:13-10:00 2022-04-30T15:10:13-10:00  -5.39834 -148.03420     157   6.4 Hikianalia
  2022-05-01T00:17:48UTC 2022-04-30T14:17:48-10:00 2022-04-30T14:17:48-10:00  -5.33197 -148.05665     156   5.9 Hōkūleʻa
  2022-05-01T00:09:20UTC 2022-04-30T14:09:20-10:00 2022-04-30T14:09:20-10:00  -5.29837 -148.07658     157   5.5 Hikianalia
  2022-04-30T23:17:38UTC 2022-04-30T13:17:38-10:00 2022-04-30T13:17:38-10:00  -5.24157 -148.09763     159   6.6 Hōkūleʻa
  2022-04-30T23:09:11UTC 2022-04-30T13:09:11-10:00 2022-04-30T13:09:11-10:00  -5.21345 -148.11195     160   5.5 Hikianalia
  2022-04-30T22:24:05UTC 2022-04-30T12:24:05-10:00 2022-04-30T12:24:05-10:00  -5.14966 -148.13229     155   6.1 Hōkūleʻa
  2022-04-30T22:09:43UTC 2022-04-30T12:09:43-10:00 2022-04-30T12:09:43-10:00  -5.12672 -148.14272     156   5.3 Hikianalia
  2022-04-30T21:28:44UTC 2022-04-30T11:28:44-10:00 2022-04-30T11:28:44-10:00  -5.06444 -148.17222     156   4.7 Hōkūleʻa
  2022-04-30T21:10:10UTC 2022-04-30T11:10:10-10:00 2022-04-30T11:10:10-10:00  -5.04609 -148.17911     150   5.4 Hikianalia
  2022-04-30T20:17:44UTC 2022-04-30T10:17:44-10:00 2022-04-30T10:17:44-10:00  -4.97846 -148.20958     159   6.0 Hōkūleʻa
  2022-04-30T20:09:16UTC 2022-04-30T10:09:16-10:00 2022-04-30T10:09:16-10:00  -4.96615 -148.22518     156   7.1 Hikianalia
  2022-04-30T19:18:39UTC 2022-04-30T09:18:39-10:00 2022-04-30T09:18:39-10:00  -4.88587 -148.24503     160   6.1 Hōkūleʻa
  2022-04-30T19:10:11UTC 2022-04-30T09:10:11-10:00 2022-04-30T09:10:11-10:00  -4.85942 -148.27262     156   7.3 Hikianalia
  2022-04-30T18:17:34UTC 2022-04-30T08:17:34-10:00 2022-04-30T08:17:34-10:00  -4.78886 -148.28045     159   6.2 Hōkūleʻa
  2022-04-30T18:09:48UTC 2022-04-30T08:09:48-10:00 2022-04-30T08:09:48-10:00  -4.74700 -148.32163     159   7.3 Hikianalia
  2022-04-30T17:18:27UTC 2022-04-30T07:18:27-10:00 2022-04-30T07:18:27-10:00  -4.69374 -148.31680     159   7.2 Hōkūleʻa
  2022-04-30T17:10:09UTC 2022-04-30T07:10:09-10:00 2022-04-30T07:10:09-10:00  -4.63295 -148.36562     165   5.7 Hikianalia
  2022-04-30T16:29:41UTC 2022-04-30T06:29:41-10:00 2022-04-30T06:29:41-10:00  -4.60168 -148.35118     157   5.0 Hōkūleʻa
  2022-04-30T16:10:21UTC 2022-04-30T06:10:21-10:00 2022-04-30T06:10:21-10:00  -4.54140 -148.39008     160   6.2 Hikianalia
  2022-04-30T15:18:38UTC 2022-04-30T05:18:38-10:00 2022-04-30T05:18:38-10:00  -4.51096 -148.38978     157   5.5 Hōkūleʻa
  2022-04-30T15:09:20UTC 2022-04-30T05:09:20-10:00 2022-04-30T05:09:20-10:00  -4.44228 -148.42553     157   4.4 Hikianalia
  2022-04-30T14:18:31UTC 2022-04-30T04:18:31-10:00 2022-04-30T04:18:31-10:00  -4.42568 -148.42568     154   5.4 Hōkūleʻa
  2022-04-30T14:10:43UTC 2022-04-30T04:10:43-10:00 2022-04-30T04:10:43-10:00  -4.37567 -148.45394     157   5.3 Hikianalia
  2022-04-30T13:18:37UTC 2022-04-30T03:18:37-10:00 2022-04-30T03:18:37-10:00  -4.34497 -148.46456     155   5.5 Hōkūleʻa
  2022-04-30T13:10:12UTC 2022-04-30T03:10:12-10:00 2022-04-30T03:10:12-10:00  -4.29384 -148.48917     153   5.0 Hikianalia
  2022-04-30T12:18:51UTC 2022-04-30T02:18:51-10:00 2022-04-30T02:18:51-10:00  -4.26212 -148.50349     155   5.7 Hōkūleʻa
  2022-04-30T12:10:18UTC 2022-04-30T02:10:18-10:00 2022-04-30T02:10:18-10:00  -4.21887 -148.52756     155   5.3 Hikianalia
  2022-04-30T11:18:38UTC 2022-04-30T01:18:38-10:00 2022-04-30T01:18:38-10:00  -4.17568 -148.54325     153   5.8 Hōkūleʻa
  2022-04-30T11:09:16UTC 2022-04-30T01:09:16-10:00 2022-04-30T01:09:16-10:00  -4.13722 -148.56535     155   5.8 Hikianalia
  2022-04-30T10:18:41UTC 2022-04-30T00:18:41-10:00 2022-04-30T00:18:41-10:00  -4.08859 -148.58698     157   5.8 Hōkūleʻa
  2022-04-30T10:10:40UTC 2022-04-30T00:10:40-10:00 2022-04-30T00:10:40-10:00  -4.05121 -148.60575     156   5.7 Hikianalia
  2022-04-30T09:18:39UTC 2022-04-29T23:18:39-10:00 2022-04-29T23:18:39-10:00  -3.99954 -148.62545     153   5.7 Hōkūleʻa
  2022-04-30T09:10:11UTC 2022-04-29T23:10:11-10:00 2022-04-29T23:10:11-10:00  -3.96320 -148.64551     154   5.3 Hikianalia
  2022-04-30T08:18:41UTC 2022-04-29T22:18:41-10:00 2022-04-29T22:18:41-10:00  -3.91474 -148.66860     153   5.3 Hōkūleʻa
  2022-04-30T08:10:18UTC 2022-04-29T22:10:18-10:00 2022-04-29T22:10:18-10:00  -3.88431 -148.68431     157   6.1 Hikianalia
  2022-04-30T07:18:34UTC 2022-04-29T21:18:34-10:00 2022-04-29T21:18:34-10:00  -3.83626 -148.70890     158   5.2 Hōkūleʻa
  2022-04-30T07:18:01UTC 2022-04-29T21:18:01-10:00 2022-04-29T21:18:01-10:00  -3.80182 -148.71866     158   4.1 Hikianalia
  2022-04-30T06:18:34UTC 2022-04-29T20:18:34-10:00 2022-04-29T20:18:34-10:00  -3.75574 -148.74141     158   5.1 Hōkūleʻa
  2022-04-30T06:10:43UTC 2022-04-29T20:10:43-10:00 2022-04-29T20:10:43-10:00  -3.72957 -148.74752     157   4.8 Hikianalia
  2022-04-30T05:18:27UTC 2022-04-29T19:18:27-10:00 2022-04-29T19:18:27-10:00  -3.67607 -148.77396     163   5.4 Hōkūleʻa
  2022-04-30T05:10:17UTC 2022-04-29T19:10:17-10:00 2022-04-29T19:10:17-10:00  -3.65512 -148.77857     161   5.4 Hikianalia
  2022-04-30T04:18:51UTC 2022-04-29T18:18:51-10:00 2022-04-29T18:18:51-10:00  -3.59080 -148.80033     161   5.2 Hōkūleʻa
  2022-04-30T04:09:21UTC 2022-04-29T18:09:21-10:00 2022-04-29T18:09:21-10:00  -3.56820 -148.80842     162   7.1 Hikianalia
  2022-04-30T03:23:43UTC 2022-04-29T17:23:43-10:00 2022-04-29T17:23:43-10:00  -3.48234 -148.83689     165   4.0 Hikianalia
  2022-04-30T03:17:39UTC 2022-04-29T17:17:39-10:00 2022-04-29T17:17:39-10:00  -3.50633 -148.82988     166   5.1 Hōkūleʻa
  2022-04-30T02:18:29UTC 2022-04-29T16:18:29-10:00 2022-04-29T16:18:29-10:00  -3.42480 -148.85018     164   4.9 Hōkūleʻa
  2022-04-30T02:10:50UTC 2022-04-29T16:10:50-10:00 2022-04-29T16:10:50-10:00  -3.40356 -148.85803     165   4.7 Hikianalia
  2022-04-30T01:18:41UTC 2022-04-29T15:18:41-10:00 2022-04-29T15:18:41-10:00  -3.34551 -148.87305     163   4.6 Hōkūleʻa
  2022-04-30T01:09:13UTC 2022-04-29T15:09:13-10:00 2022-04-29T15:09:13-10:00  -3.32520 -148.87947     164   4.8 Hikianalia
  2022-04-30T00:17:52UTC 2022-04-29T14:17:52-10:00 2022-04-29T14:17:52-10:00  -3.27077 -148.89517     169   5.3 Hōkūleʻa
  2022-04-30T00:10:34UTC 2022-04-29T14:10:34-10:00 2022-04-29T14:10:34-10:00  -3.24990 -148.90099     170   5.3 Hikianalia
  2022-04-29T23:17:41UTC 2022-04-29T13:17:41-10:00 2022-04-29T13:17:41-10:00  -3.18292 -148.91167     172   5.5 Hōkūleʻa
  2022-04-29T23:09:19UTC 2022-04-29T13:09:19-10:00 2022-04-29T13:09:19-10:00  -3.16016 -148.91627     173   5.4 Hikianalia
  2022-04-29T22:17:40UTC 2022-04-29T12:17:40-10:00 2022-04-29T12:17:40-10:00  -3.09164 -148.92468     176   5.8 Hōkūleʻa
  2022-04-29T22:09:40UTC 2022-04-29T12:09:40-10:00 2022-04-29T12:09:40-10:00  -3.07137 -148.92775     177   5.7 Hikianalia
  2022-04-29T21:18:24UTC 2022-04-29T11:18:24-10:00 2022-04-29T11:18:24-10:00  -2.99591 -148.93103     181   5.4 Hōkūleʻa
  2022-04-29T21:09:11UTC 2022-04-29T11:09:11-10:00 2022-04-29T11:09:11-10:00  -2.97512 -148.93287     179   6.6 Hikianalia
  2022-04-29T20:17:50UTC 2022-04-29T10:17:50-10:00 2022-04-29T10:17:50-10:00  -2.90448 -148.92959     170   6.0 Hōkūleʻa
  2022-04-29T20:17:03UTC 2022-04-29T10:17:03-10:00 2022-04-29T10:17:03-10:00  -2.87978 -148.93431     170   5.7 Hikianalia
  2022-04-29T19:18:34UTC 2022-04-29T09:18:34-10:00 2022-04-29T09:18:34-10:00  -2.80748 -148.94736     168   5.9 Hōkūleʻa
  2022-04-29T19:10:14UTC 2022-04-29T09:10:14-10:00 2022-04-29T09:10:14-10:00  -2.77521 -148.95319     169   6.4 Hikianalia
  2022-04-29T18:18:33UTC 2022-04-29T08:18:33-10:00 2022-04-29T08:18:33-10:00  -2.71001 -148.96727     169   6.2 Hōkūleʻa
  2022-04-29T18:09:42UTC 2022-04-29T08:09:42-10:00 2022-04-29T08:09:42-10:00  -2.66869 -148.97377     169   6.4 Hikianalia
  2022-04-29T17:18:30UTC 2022-04-29T07:18:30-10:00 2022-04-29T07:18:30-10:00  -2.60716 -148.98688     167   6.2 Hōkūleʻa
  2022-04-29T17:10:17UTC 2022-04-29T07:10:17-10:00 2022-04-29T07:10:17-10:00  -2.56386 -148.99482     165   6.3 Hikianalia
  2022-04-29T16:18:49UTC 2022-04-29T06:18:49-10:00 2022-04-29T06:18:49-10:00  -2.50699 -149.01023     161   6.1 Hōkūleʻa
  2022-04-29T16:11:21UTC 2022-04-29T06:11:21-10:00 2022-04-29T06:11:21-10:00  -2.46301 -149.02100     157   5.6 Hikianalia
  2022-04-29T15:18:40UTC 2022-04-29T05:18:40-10:00 2022-04-29T05:18:40-10:00  -2.41053 -149.04353     159   6.2 Hōkūleʻa
  2022-04-29T15:10:19UTC 2022-04-29T05:10:19-10:00 2022-04-29T05:10:19-10:00  -2.37515 -149.05724     160   6.2 Hikianalia
  2022-04-29T14:18:44UTC 2022-04-29T04:18:44-10:00 2022-04-29T04:18:44-10:00  -2.31427 -149.08048     159   6.1 Hōkūleʻa
  2022-04-29T14:10:51UTC 2022-04-29T04:10:51-10:00 2022-04-29T04:10:51-10:00  -2.27804 -149.09183     158   6.5 Hikianalia
  2022-04-29T13:18:35UTC 2022-04-29T03:18:35-10:00 2022-04-29T03:18:35-10:00  -2.21902 -149.11728     156   6.1 Hōkūleʻa
  2022-04-29T13:10:14UTC 2022-04-29T03:10:14-10:00 2022-04-29T03:10:14-10:00  -2.17615 -149.13331     154   5.8 Hikianalia
  2022-04-29T12:18:50UTC 2022-04-29T02:18:50-10:00 2022-04-29T02:18:50-10:00  -2.12622 -149.15769     152   6.6 Hōkūleʻa
  2022-04-29T12:10:18UTC 2022-04-29T02:10:18-10:00 2022-04-29T02:10:18-10:00  -2.08925 -149.17635     153   6.6 Hikianalia
  2022-04-29T11:18:37UTC 2022-04-29T01:18:37-10:00 2022-04-29T01:18:37-10:00  -2.02821 -149.20906     153   6.5 Hōkūleʻa
  2022-04-29T11:09:20UTC 2022-04-29T01:09:20-10:00 2022-04-29T01:09:20-10:00  -1.98929 -149.22710     154   6.2 Hikianalia
  2022-04-29T10:18:32UTC 2022-04-29T00:18:32-10:00 2022-04-29T00:18:32-10:00  -1.93039 -149.25815     155   6.4 Hōkūleʻa
  2022-04-29T10:10:40UTC 2022-04-29T00:10:40-10:00 2022-04-29T00:10:40-10:00  -1.89764 -149.27188     157   6.3 Hikianalia
  2022-04-29T09:18:41UTC 2022-04-28T23:18:41-10:00 2022-04-28T23:18:41-10:00  -1.83261 -149.30280     161   6.4 Hōkūleʻa
  2022-04-29T09:10:12UTC 2022-04-28T23:10:12-10:00 2022-04-28T23:10:12-10:00  -1.80011 -149.31396     164   6.7 Hikianalia
  2022-04-29T08:18:41UTC 2022-04-28T22:18:41-10:00 2022-04-28T22:18:41-10:00  -1.73100 -149.33823     165   6.9 Hōkūleʻa
  2022-04-29T08:10:09UTC 2022-04-28T22:10:09-10:00 2022-04-28T22:10:09-10:00  -1.69143 -149.34490     164   6.7 Hikianalia
  2022-04-29T07:18:39UTC 2022-04-28T21:18:39-10:00 2022-04-28T21:18:39-10:00  -1.61860 -149.36735     163   6.6 Hōkūleʻa
  2022-04-29T07:10:20UTC 2022-04-28T21:10:20-10:00 2022-04-28T21:10:20-10:00  -1.58352 -149.37484     163   6.1 Hikianalia
  2022-04-29T06:19:07UTC 2022-04-28T20:19:07-10:00 2022-04-28T20:19:07-10:00  -1.51445 -149.39962     163   6.2 Hōkūleʻa
  2022-04-29T06:09:50UTC 2022-04-28T20:09:50-10:00 2022-04-28T20:09:50-10:00  -1.48551 -149.40533     165   6.3 Hikianalia
  2022-04-29T05:18:37UTC 2022-04-28T19:18:37-10:00 2022-04-28T19:18:37-10:00  -1.41439 -149.42930     171   6.5 Hōkūleʻa
  2022-04-29T05:10:09UTC 2022-04-28T19:10:09-10:00 2022-04-28T19:10:09-10:00  -1.38376 -149.43320     172   6.3 Hikianalia
  2022-04-29T04:18:52UTC 2022-04-28T18:18:52-10:00 2022-04-28T18:18:52-10:00  -1.30699 -149.44535     166   7.3 Hōkūleʻa
  2022-04-29T04:10:20UTC 2022-04-28T18:10:20-10:00 2022-04-28T18:10:20-10:00  -1.27910 -149.44706     162   7.7 Hikianalia
  2022-04-29T03:18:41UTC 2022-04-28T17:18:41-10:00 2022-04-28T17:18:41-10:00  -1.18888 -149.47509     160   6.9 Hōkūleʻa
  2022-04-29T03:10:20UTC 2022-04-28T17:10:20-10:00 2022-04-28T17:10:20-10:00  -1.15577 -149.48618     159   7.9 Hikianalia
  2022-04-29T02:18:33UTC 2022-04-28T16:18:33-10:00 2022-04-28T16:18:33-10:00  -1.08008 -149.51421     162   6.6 Hōkūleʻa
  2022-04-29T02:10:50UTC 2022-04-28T16:10:50-10:00 2022-04-28T16:10:50-10:00  -1.03232 -149.53210     167   6.4 Hikianalia
  2022-04-29T01:18:40UTC 2022-04-28T15:18:40-10:00 2022-04-28T15:18:40-10:00  -0.97548 -149.54708     166   6.0 Hōkūleʻa
  2022-04-29T01:09:19UTC 2022-04-28T15:09:19-10:00 2022-04-28T15:09:19-10:00  -0.92433 -149.55641     166   5.5 Hikianalia
  2022-04-29T00:17:50UTC 2022-04-28T14:17:50-10:00 2022-04-28T14:17:50-10:00  -0.87663 -149.57118     166   5.9 Hōkūleʻa
  2022-04-29T00:10:18UTC 2022-04-28T14:10:18-10:00 2022-04-28T14:10:18-10:00  -0.83648 -149.57757     163   5.4 Hikianalia
  2022-04-28T23:17:30UTC 2022-04-28T13:17:30-10:00 2022-04-28T13:17:30-10:00  -0.78038 -149.59525     158   6.3 Hōkūleʻa
  2022-04-28T23:09:09UTC 2022-04-28T13:09:09-10:00 2022-04-28T13:09:09-10:00  -0.74762 -149.60435     157   5.9 Hikianalia
  2022-04-28T22:17:41UTC 2022-04-28T12:17:41-10:00 2022-04-28T12:17:41-10:00  -0.68251 -149.63387     164   5.9 Hōkūleʻa
  2022-04-28T22:09:50UTC 2022-04-28T12:09:50-10:00 2022-04-28T12:09:50-10:00  -0.65671 -149.64199     165   6.6 Hikianalia
  2022-04-28T21:17:33UTC 2022-04-28T11:17:33-10:00 2022-04-28T11:17:33-10:00  -0.58776 -149.66175     163   5.8 Hōkūleʻa
  2022-04-28T21:16:20UTC 2022-04-28T11:16:20-10:00 2022-04-28T11:16:20-10:00  -0.56085 -149.66746     163   6.9 Hikianalia
  2022-04-28T20:27:12UTC 2022-04-28T10:27:12-10:00 2022-04-28T10:27:12-10:00  -0.47058 -149.69449     170   4.0 Hikianalia
  2022-04-28T20:17:52UTC 2022-04-28T10:17:52-10:00 2022-04-28T10:17:52-10:00  -0.49456 -149.68990     169   5.5 Hōkūleʻa
  2022-04-28T19:18:27UTC 2022-04-28T09:18:27-10:00 2022-04-28T09:18:27-10:00  -0.40498 -149.70795     171   5.5 Hōkūleʻa
  2022-04-28T19:09:13UTC 2022-04-28T09:09:13-10:00 2022-04-28T09:09:13-10:00  -0.38475 -149.70904     169   6.2 Hikianalia
  2022-04-28T18:18:34UTC 2022-04-28T08:18:34-10:00 2022-04-28T08:18:34-10:00  -0.31370 -149.72198     170   5.6 Hōkūleʻa
  2022-04-28T18:10:46UTC 2022-04-28T08:10:46-10:00 2022-04-28T08:10:46-10:00  -0.28526 -149.72820     169   6.5 Hikianalia
  2022-04-28T17:18:36UTC 2022-04-28T07:18:36-10:00 2022-04-28T07:18:36-10:00  -0.22200 -149.73749     169   6.2 Hōkūleʻa
  2022-04-28T17:10:18UTC 2022-04-28T07:10:18-10:00 2022-04-28T07:10:18-10:00  -0.17665 -149.74852     170   6.3 Hikianalia
  2022-04-28T16:27:11UTC 2022-04-28T06:27:11-10:00 2022-04-28T06:27:11-10:00  -0.13501 -149.75425     171   4.1 Hōkūleʻa
  2022-04-28T16:10:16UTC 2022-04-28T06:10:16-10:00 2022-04-28T06:10:16-10:00  -0.07210 -149.76683     173   4.1 Hikianalia
  2022-04-28T15:18:40UTC 2022-04-28T05:18:40-10:00 2022-04-28T05:18:40-10:00  -0.05846 -149.76608     164   4.8 Hōkūleʻa
  2022-04-28T15:10:18UTC 2022-04-28T05:10:18-10:00 2022-04-28T05:10:18-10:00  -0.00380 -149.77474     164   3.2 Hikianalia
  2022-04-28T14:27:22UTC 2022-04-28T04:27:22-10:00 2022-04-28T04:27:22-10:00   0.00710 -149.78509     166   3.6 Hōkūleʻa
  2022-04-28T14:10:41UTC 2022-04-28T04:10:41-10:00 2022-04-28T04:10:41-10:00   0.04723 -149.78908     167   3.8 Hikianalia
  2022-04-28T13:18:26UTC 2022-04-28T03:18:26-10:00 2022-04-28T03:18:26-10:00   0.07420 -149.80217     170   4.3 Hōkūleʻa
  2022-04-28T13:10:19UTC 2022-04-28T03:10:19-10:00 2022-04-28T03:10:19-10:00   0.11035 -149.80315     171   4.8 Hikianalia
  2022-04-28T12:18:42UTC 2022-04-28T02:18:42-10:00 2022-04-28T02:18:42-10:00   0.14433 -149.81457     174   3.9 Hōkūleʻa
  2022-04-28T12:10:19UTC 2022-04-28T02:10:19-10:00 2022-04-28T02:10:19-10:00   0.18970 -149.81603     171   4.3 Hikianalia
  2022-04-28T11:18:37UTC 2022-04-28T01:18:37-10:00 2022-04-28T01:18:37-10:00   0.20941 -149.82099     177   4.1 Hōkūleʻa
  2022-04-28T11:10:16UTC 2022-04-28T01:10:16-10:00 2022-04-28T01:10:16-10:00   0.26032 -149.82652     181   3.9 Hikianalia
  2022-04-28T10:17:33UTC 2022-04-28T00:17:33-10:00 2022-04-28T00:17:33-10:00   0.27903 -149.82423     181   3.9 Hōkūleʻa
  2022-04-28T10:10:48UTC 2022-04-28T00:10:48-10:00 2022-04-28T00:10:48-10:00   0.32488 -149.82521     181   3.5 Hikianalia
  2022-04-28T09:18:43UTC 2022-04-27T23:18:43-10:00 2022-04-27T23:18:43-10:00   0.34244 -149.82300     184   4.2 Hōkūleʻa
  2022-04-28T09:10:20UTC 2022-04-27T23:10:20-10:00 2022-04-27T23:10:20-10:00   0.38425 -149.82414     195   6.7 Hikianalia
  2022-04-28T08:29:52UTC 2022-04-27T22:29:52-10:00 2022-04-27T22:29:52-10:00   0.45723 -149.80472     192   3.6 Hikianalia
  2022-04-28T08:18:41UTC 2022-04-27T22:18:41-10:00 2022-04-27T22:18:41-10:00   0.41302 -149.81764     192   4.6 Hōkūleʻa
  2022-04-28T07:18:29UTC 2022-04-27T21:18:29-10:00 2022-04-27T21:18:29-10:00   0.48874 -149.80142     187   5.1 Hōkūleʻa
  2022-04-28T07:10:12UTC 2022-04-27T21:10:12-10:00 2022-04-27T21:10:12-10:00   0.53592 -149.78833     194   3.7 Hikianalia
  2022-04-28T06:21:43UTC 2022-04-27T20:21:43-10:00 2022-04-27T20:21:43-10:00   0.58447 -149.77631     231   2.9 Hikianalia
  2022-04-28T06:19:07UTC 2022-04-27T20:19:07-10:00 2022-04-27T20:19:07-10:00   0.57291 -149.79105     223   2.6 Hōkūleʻa
  2022-04-28T05:17:27UTC 2022-04-27T19:17:27-10:00 2022-04-27T19:17:27-10:00   0.60588 -149.76011     231   2.7 Hōkūleʻa
  2022-04-28T05:10:29UTC 2022-04-27T19:10:29-10:00 2022-04-27T19:10:29-10:00   0.62128 -149.73112     197   1.6 Hikianalia
  2022-04-28T04:18:26UTC 2022-04-27T18:18:26-10:00 2022-04-27T18:18:26-10:00   0.63356 -149.72625     196   5.6 Hōkūleʻa
  2022-04-28T04:10:27UTC 2022-04-27T18:10:27-10:00 2022-04-27T18:10:27-10:00   0.64627 -149.72357     198   6.0 Hikianalia
  2022-04-28T03:18:40UTC 2022-04-27T17:18:40-10:00 2022-04-27T17:18:40-10:00   0.72321 -149.70057     206   5.9 Hōkūleʻa
  2022-04-28T03:10:19UTC 2022-04-27T17:10:19-10:00 2022-04-27T17:10:19-10:00   0.74148 -149.69310     208   6.1 Hikianalia
  2022-04-28T02:17:53UTC 2022-04-27T16:17:53-10:00 2022-04-27T16:17:53-10:00   0.81380 -149.65722     208   6.2 Hōkūleʻa
  2022-04-28T02:09:50UTC 2022-04-27T16:09:50-10:00 2022-04-27T16:09:50-10:00   0.83349 -149.64548     209   6.2 Hikianalia
  2022-04-28T01:18:28UTC 2022-04-27T15:18:28-10:00 2022-04-27T15:18:28-10:00   0.90380 -149.60888     214   6.0 Hōkūleʻa
  2022-04-28T01:10:12UTC 2022-04-27T15:10:12-10:00 2022-04-27T15:10:12-10:00   0.92315 -149.59572     212   5.9 Hikianalia
  2022-04-28T00:18:35UTC 2022-04-27T14:18:35-10:00 2022-04-27T14:18:35-10:00   0.98782 -149.55328     210   5.7 Hōkūleʻa
  2022-04-28T00:10:17UTC 2022-04-27T14:10:17-10:00 2022-04-27T14:10:17-10:00   1.00705 -149.54317     210   5.5 Hikianalia
  2022-04-27T23:17:34UTC 2022-04-27T13:17:34-10:00 2022-04-27T13:17:34-10:00   1.07204 -149.50416     204   5.3 Hōkūleʻa
  2022-04-27T23:09:17UTC 2022-04-27T13:09:17-10:00 2022-04-27T13:09:17-10:00   1.08857 -149.49597     205   5.2 Hikianalia
  2022-04-27T22:17:51UTC 2022-04-27T12:17:51-10:00 2022-04-27T12:17:51-10:00   1.15179 -149.46811     203   5.6 Hōkūleʻa
  2022-04-27T22:09:49UTC 2022-04-27T12:09:49-10:00 2022-04-27T12:09:49-10:00   1.16590 -149.45934     201   5.6 Hikianalia
  2022-04-27T21:18:32UTC 2022-04-27T11:18:32-10:00 2022-04-27T11:18:32-10:00   1.23677 -149.43222     207   5.8 Hōkūleʻa
  2022-04-27T21:09:10UTC 2022-04-27T11:09:10-10:00 2022-04-27T11:09:10-10:00   1.25425 -149.42567     208   5.9 Hikianalia
  2022-04-27T20:17:37UTC 2022-04-27T10:17:37-10:00 2022-04-27T10:17:37-10:00   1.32530 -149.38784     209   6.2 Hōkūleʻa
  2022-04-27T20:10:19UTC 2022-04-27T10:10:19-10:00 2022-04-27T10:10:19-10:00   1.34047 -149.38052     214   6.3 Hikianalia
  2022-04-27T19:18:42UTC 2022-04-27T09:18:42-10:00 2022-04-27T09:18:42-10:00   1.41464 -149.33793     244   1.9 Hōkūleʻa
  2022-04-27T19:10:30UTC 2022-04-27T09:10:30-10:00 2022-04-27T09:10:30-10:00   1.42722 -149.32276     247   1.2 Hikianalia
  2022-04-27T18:19:13UTC 2022-04-27T08:19:13-10:00 2022-04-27T08:19:13-10:00   1.42862 -149.30948     302   1.1 Hōkūleʻa
  2022-04-27T18:09:48UTC 2022-04-27T08:09:48-10:00 2022-04-27T08:09:48-10:00   1.43487 -149.30478     313   1.2 Hikianalia
  2022-04-27T17:17:39UTC 2022-04-27T07:17:39-10:00 2022-04-27T07:17:39-10:00   1.41870 -149.29375     224   3.1 Hōkūleʻa
  2022-04-27T17:10:09UTC 2022-04-27T07:10:09-10:00 2022-04-27T07:10:09-10:00   1.42165 -149.29049     211   6.2 Hikianalia
  2022-04-27T16:18:27UTC 2022-04-27T06:18:27-10:00 2022-04-27T06:18:27-10:00   1.45535 -149.25884     221   5.8 Hōkūleʻa
  2022-04-27T16:10:11UTC 2022-04-27T06:10:11-10:00 2022-04-27T06:10:11-10:00   1.51051 -149.23770     228   5.9 Hikianalia
  2022-04-27T15:18:32UTC 2022-04-27T05:18:32-10:00 2022-04-27T05:18:32-10:00   1.52809 -149.19582     216   6.7 Hōkūleʻa
  2022-04-27T15:10:18UTC 2022-04-27T05:10:18-10:00 2022-04-27T05:10:18-10:00   1.57651 -149.16427     214   5.3 Hikianalia
  2022-04-27T14:29:47UTC 2022-04-27T04:29:47-10:00 2022-04-27T04:29:47-10:00   1.60217 -149.14234     213   5.0 Hōkūleʻa
  2022-04-27T14:10:51UTC 2022-04-27T04:10:51-10:00 2022-04-27T04:10:51-10:00   1.64849 -149.11539     211   6.6 Hikianalia
  2022-04-27T13:18:36UTC 2022-04-27T03:18:36-10:00 2022-04-27T03:18:36-10:00   1.68562 -149.08900     209   5.6 Hōkūleʻa
  2022-04-27T13:18:10UTC 2022-04-27T03:18:10-10:00 2022-04-27T03:18:10-10:00   1.73196 -149.06641     208   4.5 Hikianalia
  2022-04-27T12:18:34UTC 2022-04-27T02:18:34-10:00 2022-04-27T02:18:34-10:00   1.76757 -149.04394     206   5.6 Hōkūleʻa
  2022-04-27T12:10:19UTC 2022-04-27T02:10:19-10:00 2022-04-27T02:10:19-10:00   1.80747 -149.02710     206   6.3 Hikianalia
  2022-04-27T11:18:47UTC 2022-04-27T01:18:47-10:00 2022-04-27T01:18:47-10:00   1.88871 -148.98729     205   4.6 Hikianalia
  2022-04-27T11:18:30UTC 2022-04-27T01:18:30-10:00 2022-04-27T01:18:30-10:00   1.85217 -149.00210     204   5.7 Hōkūleʻa
  2022-04-27T10:19:51UTC 2022-04-27T00:19:51-10:00 2022-04-27T00:19:51-10:00   1.93684 -148.96384     206   5.3 Hōkūleʻa
  2022-04-27T10:10:58UTC 2022-04-27T00:10:58-10:00 2022-04-27T00:10:58-10:00   1.96800 -148.94998     205   5.1 Hikianalia
  2022-04-27T09:18:40UTC 2022-04-26T23:18:40-10:00 2022-04-26T23:18:40-10:00   2.01818 -148.92431     209   5.1 Hōkūleʻa
  2022-04-27T09:10:19UTC 2022-04-26T23:10:19-10:00 2022-04-26T23:10:19-10:00   2.04616 -148.91313     210   4.9 Hikianalia
  2022-04-27T08:17:40UTC 2022-04-26T22:17:40-10:00 2022-04-26T22:17:40-10:00   2.09408 -148.88284     212   5.3 Hōkūleʻa
  2022-04-27T08:09:09UTC 2022-04-26T22:09:09-10:00 2022-04-26T22:09:09-10:00   2.11760 -148.87133     212   5.4 Hikianalia
  2022-04-27T07:18:30UTC 2022-04-26T21:18:30-10:00 2022-04-26T21:18:30-10:00   2.16840 -148.83632     206   5.1 Hōkūleʻa
  2022-04-27T07:10:12UTC 2022-04-26T21:10:12-10:00 2022-04-26T21:10:12-10:00   2.19309 -148.82460     203   4.7 Hikianalia
  2022-04-27T06:18:41UTC 2022-04-26T20:18:41-10:00 2022-04-26T20:18:41-10:00   2.24489 -148.79949     213   4.9 Hōkūleʻa
  2022-04-27T06:10:44UTC 2022-04-26T20:10:44-10:00 2022-04-26T20:10:44-10:00   2.26524 -148.79381     217   5.0 Hikianalia
  2022-04-27T05:18:37UTC 2022-04-26T19:18:37-10:00 2022-04-26T19:18:37-10:00   2.31296 -148.75518     228   4.7 Hōkūleʻa
  2022-04-27T05:10:19UTC 2022-04-26T19:10:19-10:00 2022-04-26T19:10:19-10:00   2.33205 -148.74396     229   4.6 Hikianalia
  2022-04-27T04:18:41UTC 2022-04-26T18:18:41-10:00 2022-04-26T18:18:41-10:00   2.36572 -148.69731     228   5.1 Hōkūleʻa
  2022-04-27T04:10:21UTC 2022-04-26T18:10:21-10:00 2022-04-26T18:10:21-10:00   2.38309 -148.68594     228   5.2 Hikianalia
  2022-04-27T03:26:01UTC 2022-04-26T17:26:01-10:00 2022-04-26T17:26:01-10:00   2.41648 -148.64214     230   3.6 Hōkūleʻa
  2022-04-27T03:19:51UTC 2022-04-26T17:19:51-10:00 2022-04-26T17:19:51-10:00   2.43244 -148.63137     232   3.6 Hikianalia
  2022-04-27T02:18:49UTC 2022-04-26T16:18:49-10:00 2022-04-26T16:18:49-10:00   2.45970 -148.59030     230   4.5 Hōkūleʻa
  2022-04-27T02:09:42UTC 2022-04-26T16:09:42-10:00 2022-04-26T16:09:42-10:00   2.47639 -148.57554     230   4.3 Hikianalia
  2022-04-27T01:18:34UTC 2022-04-26T15:18:34-10:00 2022-04-26T15:18:34-10:00   2.50837 -148.53348     228   4.5 Hōkūleʻa
  2022-04-27T01:10:19UTC 2022-04-26T15:10:19-10:00 2022-04-26T15:10:19-10:00   2.52219 -148.52213     222   5.1 Hikianalia
  2022-04-27T00:17:32UTC 2022-04-26T14:17:32-10:00 2022-04-26T14:17:32-10:00   2.55932 -148.47649     231   4.6 Hōkūleʻa
  2022-04-27T00:09:20UTC 2022-04-26T14:09:20-10:00 2022-04-26T14:09:20-10:00   2.58702 -148.46441     228   5.2 Hikianalia
  2022-04-26T23:18:22UTC 2022-04-26T13:18:22-10:00 2022-04-26T13:18:22-10:00   2.60734 -148.41783     229   5.0 Hōkūleʻa
  2022-04-26T23:10:09UTC 2022-04-26T13:10:09-10:00 2022-04-26T13:10:09-10:00   2.64446 -148.40156     230   4.9 Hikianalia
  2022-04-26T22:17:49UTC 2022-04-26T12:17:49-10:00 2022-04-26T12:17:49-10:00   2.66257 -148.35397     227   5.0 Hōkūleʻa
  2022-04-26T22:09:55UTC 2022-04-26T12:09:55-10:00 2022-04-26T12:09:55-10:00   2.69665 -148.33880     226   5.2 Hikianalia
  2022-04-26T21:17:39UTC 2022-04-26T11:17:39-10:00 2022-04-26T11:17:39-10:00   2.72079 -148.29286     227   5.0 Hōkūleʻa
  2022-04-26T21:09:20UTC 2022-04-26T11:09:20-10:00 2022-04-26T11:09:20-10:00   2.75742 -148.27627     224   4.8 Hikianalia
  2022-04-26T20:18:37UTC 2022-04-26T10:18:37-10:00 2022-04-26T10:18:37-10:00   2.77715 -148.23357     226   4.7 Hōkūleʻa
  2022-04-26T20:09:16UTC 2022-04-26T10:09:16-10:00 2022-04-26T10:09:16-10:00   2.81511 -148.22001     228   4.3 Hikianalia
  2022-04-26T19:17:40UTC 2022-04-26T09:17:40-10:00 2022-04-26T09:17:40-10:00   2.83243 -148.17703     219   5.3 Hōkūleʻa
  2022-04-26T19:10:13UTC 2022-04-26T09:10:13-10:00 2022-04-26T09:10:13-10:00   2.86235 -148.16731     219   4.2 Hikianalia
  2022-04-26T18:29:17UTC 2022-04-26T08:29:17-10:00 2022-04-26T08:29:17-10:00   2.88874 -148.13222     215   4.0 Hōkūleʻa
  2022-04-26T18:09:52UTC 2022-04-26T08:09:52-10:00 2022-04-26T08:09:52-10:00   2.91701 -148.12366     216   4.7 Hikianalia
  2022-04-26T17:18:22UTC 2022-04-26T07:18:22-10:00 2022-04-26T07:18:22-10:00   2.95332 -148.08755     217   4.1 Hōkūleʻa
  2022-04-26T17:10:11UTC 2022-04-26T07:10:11-10:00 2022-04-26T07:10:11-10:00   2.98015 -148.07879     214   4.5 Hikianalia
  2022-04-26T16:18:45UTC 2022-04-26T06:18:45-10:00 2022-04-26T06:18:45-10:00   3.00749 -148.04629     218   4.3 Hōkūleʻa
  2022-04-26T16:10:19UTC 2022-04-26T06:10:19-10:00 2022-04-26T06:10:19-10:00   3.04268 -148.03734     220   4.8 Hikianalia
  2022-04-26T15:18:34UTC 2022-04-26T05:18:34-10:00 2022-04-26T05:18:34-10:00   3.06377 -148.00245     220   4.8 Hōkūleʻa
  2022-04-26T15:10:18UTC 2022-04-26T05:10:18-10:00 2022-04-26T05:10:18-10:00   3.10365 -147.98644     220   5.0 Hikianalia
  2022-04-26T14:18:57UTC 2022-04-26T04:18:57-10:00 2022-04-26T04:18:57-10:00   3.12460 -147.95187     224   5.2 Hōkūleʻa
  2022-04-26T14:10:49UTC 2022-04-26T04:10:49-10:00 2022-04-26T04:10:49-10:00   3.16729 -147.93241     225   5.3 Hikianalia
  2022-04-26T13:18:32UTC 2022-04-26T03:18:32-10:00 2022-04-26T03:18:32-10:00   3.18683 -147.89106     222   4.9 Hōkūleʻa
  2022-04-26T13:10:13UTC 2022-04-26T03:10:13-10:00 2022-04-26T03:10:13-10:00   3.23108 -147.86950     218   4.4 Hikianalia
  2022-04-26T12:26:44UTC 2022-04-26T02:26:44-10:00 2022-04-26T02:26:44-10:00   3.23963 -147.84441     214   3.7 Hōkūleʻa
  2022-04-26T12:10:10UTC 2022-04-26T02:10:10-10:00 2022-04-26T02:10:10-10:00   3.28974 -147.82418     218   3.6 Hikianalia
  2022-04-26T11:18:36UTC 2022-04-26T01:18:36-10:00 2022-04-26T01:18:36-10:00   3.29738 -147.80566     216   4.4 Hōkūleʻa
  2022-04-26T11:10:18UTC 2022-04-26T01:10:18-10:00 2022-04-26T01:10:18-10:00   3.33699 -147.78768     217   3.8 Hikianalia
  2022-04-26T10:18:50UTC 2022-04-26T00:18:50-10:00 2022-04-26T00:18:50-10:00   3.35653 -147.76352     213   4.4 Hōkūleʻa
  2022-04-26T10:09:53UTC 2022-04-26T00:09:53-10:00 2022-04-26T00:09:53-10:00   3.38780 -147.74944     216   4.3 Hikianalia
  2022-04-26T09:17:42UTC 2022-04-25T23:17:42-10:00 2022-04-25T23:17:42-10:00   3.41966 -147.72303     215   4.4 Hōkūleʻa
  2022-04-26T09:10:12UTC 2022-04-25T23:10:12-10:00 2022-04-25T23:10:12-10:00   3.44616 -147.70715     216   3.6 Hikianalia
  2022-04-26T08:18:29UTC 2022-04-25T22:18:29-10:00 2022-04-25T22:18:29-10:00   3.47878 -147.68228     215   5.1 Hōkūleʻa
  2022-04-26T08:10:18UTC 2022-04-25T22:10:18-10:00 2022-04-25T22:10:18-10:00   3.49420 -147.67215     212   4.8 Hikianalia
  2022-04-26T07:10:12UTC 2022-04-25T21:10:12-10:00 2022-04-25T21:10:12-10:00   3.56234 -147.62996     221   5.6 Hikianalia
  2022-04-26T06:19:29UTC 2022-04-25T20:19:29-10:00 2022-04-25T20:19:29-10:00   3.61770 -147.58537     225   5.5 Hōkūleʻa
  2022-04-26T06:09:48UTC 2022-04-25T20:09:48-10:00 2022-04-25T20:09:48-10:00   3.63280 -147.56817     222   5.6 Hikianalia
  2022-04-26T05:18:30UTC 2022-04-25T19:18:30-10:00 2022-04-25T19:18:30-10:00   3.68406 -147.52006     221   5.1 Hōkūleʻa
  2022-04-26T05:10:09UTC 2022-04-25T19:10:09-10:00 2022-04-25T19:10:09-10:00   3.70277 -147.50575     222   4.9 Hikianalia
  2022-04-26T04:18:37UTC 2022-04-25T18:18:37-10:00 2022-04-25T18:18:37-10:00   3.74804 -147.46371     229   4.5 Hōkūleʻa
  2022-04-26T04:10:13UTC 2022-04-25T18:10:13-10:00 2022-04-25T18:10:13-10:00   3.76390 -147.45161     210   5.8 Hikianalia
  2022-04-26T03:18:59UTC 2022-04-25T17:18:59-10:00 2022-04-25T17:18:59-10:00   3.83506 -147.41007     215   4.2 Hikianalia
  2022-04-26T03:18:25UTC 2022-04-25T17:18:25-10:00 2022-04-25T17:18:25-10:00   3.79840 -147.40650     213   4.2 Hōkūleʻa
  2022-04-26T02:19:01UTC 2022-04-25T16:19:01-10:00 2022-04-25T16:19:01-10:00   3.85761 -147.36885     216   3.5 Hōkūleʻa
  2022-04-26T02:09:49UTC 2022-04-25T16:09:49-10:00 2022-04-25T16:09:49-10:00   3.90126 -147.36305     218   3.1 Hikianalia
  2022-04-26T01:17:31UTC 2022-04-25T15:17:31-10:00 2022-04-25T15:17:31-10:00   3.90564 -147.33376     209   3.3 Hōkūleʻa
  2022-04-26T01:10:12UTC 2022-04-25T15:10:12-10:00 2022-04-25T15:10:12-10:00   3.94176 -147.33181     203   3.1 Hikianalia
  2022-04-26T00:18:34UTC 2022-04-25T14:18:34-10:00 2022-04-25T14:18:34-10:00   3.95295 -147.30803     195   3.7 Hōkūleʻa
  2022-04-26T00:09:21UTC 2022-04-25T14:09:21-10:00 2022-04-25T14:09:21-10:00   3.99025 -147.31082     210   3.9 Hikianalia
  2022-04-25T23:17:28UTC 2022-04-25T13:17:28-10:00 2022-04-25T13:17:28-10:00   4.01321 -147.29228     211   4.1 Hōkūleʻa
  2022-04-25T23:10:17UTC 2022-04-25T13:10:17-10:00 2022-04-25T13:10:17-10:00   4.04548 -147.27879     212   3.6 Hikianalia
  2022-04-25T22:18:53UTC 2022-04-25T12:18:53-10:00 2022-04-25T12:18:53-10:00   4.07029 -147.25845     206   3.9 Hōkūleʻa
  2022-04-25T22:09:52UTC 2022-04-25T12:09:52-10:00 2022-04-25T12:09:52-10:00   4.09628 -147.24684     200   3.5 Hikianalia
  2022-04-25T21:17:41UTC 2022-04-25T11:17:41-10:00 2022-04-25T11:17:41-10:00   4.13046 -147.22860     184   2.6 Hōkūleʻa
  2022-04-25T21:10:19UTC 2022-04-25T11:10:19-10:00 2022-04-25T11:10:19-10:00   4.15035 -147.22675     178   2.4 Hikianalia
  2022-04-25T20:18:36UTC 2022-04-25T10:18:36-10:00 2022-04-25T10:18:36-10:00   4.17381 -147.22553     174   4.1 Hōkūleʻa
  2022-04-25T20:09:32UTC 2022-04-25T10:09:32-10:00 2022-04-25T10:09:32-10:00   4.19164 -147.22796     174   4.6 Hikianalia
  2022-04-25T19:17:33UTC 2022-04-25T09:17:33-10:00 2022-04-25T09:17:33-10:00   4.24390 -147.23298     165   3.8 Hōkūleʻa
  2022-04-25T19:10:14UTC 2022-04-25T09:10:14-10:00 2022-04-25T09:10:14-10:00   4.26763 -147.23622     164   3.9 Hikianalia
  2022-04-25T18:18:50UTC 2022-04-25T08:18:50-10:00 2022-04-25T08:18:50-10:00   4.30397 -147.24918     168   3.5 Hōkūleʻa
  2022-04-25T18:09:38UTC 2022-04-25T08:09:38-10:00 2022-04-25T08:09:38-10:00   4.33039 -147.25368     169   3.1 Hikianalia
  2022-04-25T17:19:35UTC 2022-04-25T07:19:35-10:00 2022-04-25T07:19:35-10:00   4.36007 -147.26076     205   2.3 Hōkūleʻa
  2022-04-25T17:10:19UTC 2022-04-25T07:10:19-10:00 2022-04-25T07:10:19-10:00   4.38008 -147.26347     222   2.1 Hikianalia
  2022-04-25T16:18:35UTC 2022-04-25T06:18:35-10:00 2022-04-25T06:18:35-10:00   4.39516 -147.24465     221   2.6 Hōkūleʻa
  2022-04-25T16:10:35UTC 2022-04-25T06:10:35-10:00 2022-04-25T06:10:35-10:00   4.40583 -147.24012     221   3.6 Hikianalia
  2022-04-25T15:19:51UTC 2022-04-25T05:19:51-10:00 2022-04-25T05:19:51-10:00   4.44426 -147.20710     226   3.8 Hikianalia
  2022-04-25T15:18:40UTC 2022-04-25T05:18:40-10:00 2022-04-25T05:18:40-10:00   4.42847 -147.21620     224   4.3 Hōkūleʻa
  2022-04-25T14:18:52UTC 2022-04-25T04:18:52-10:00 2022-04-25T04:18:52-10:00   4.48043 -147.16644     221   4.1 Hōkūleʻa
  2022-04-25T14:10:42UTC 2022-04-25T04:10:42-10:00 2022-04-25T04:10:42-10:00   4.49528 -147.15420     216   4.2 Hikianalia
  2022-04-25T13:18:35UTC 2022-04-25T03:18:35-10:00 2022-04-25T03:18:35-10:00   4.53224 -147.12114     210   4.0 Hōkūleʻa
  2022-04-25T13:10:23UTC 2022-04-25T03:10:23-10:00 2022-04-25T03:10:23-10:00   4.55334 -147.11277     194   3.9 Hikianalia
  2022-04-25T12:28:14UTC 2022-04-25T02:28:14-10:00 2022-04-25T02:28:14-10:00   4.58150 -147.09335     173   3.3 Hōkūleʻa
  2022-04-25T12:10:20UTC 2022-04-25T02:10:20-10:00 2022-04-25T02:10:20-10:00   4.61726 -147.09672     177   4.1 Hikianalia
  2022-04-25T11:18:38UTC 2022-04-25T01:18:38-10:00 2022-04-25T01:18:38-10:00   4.64593 -147.10151     185   4.3 Hōkūleʻa
  2022-04-25T11:10:16UTC 2022-04-25T01:10:16-10:00 2022-04-25T01:10:16-10:00   4.68567 -147.10065     188   4.4 Hikianalia
  2022-04-25T10:18:52UTC 2022-04-25T00:18:52-10:00 2022-04-25T00:18:52-10:00   4.71822 -147.09550     205   6.1 Hōkūleʻa
  2022-04-25T10:10:49UTC 2022-04-25T00:10:49-10:00 2022-04-25T00:10:49-10:00   4.75847 -147.08990     210   4.7 Hikianalia
  2022-04-25T09:26:11UTC 2022-04-24T23:26:11-10:00 2022-04-24T23:26:11-10:00   4.79902 -147.05756     181   4.9 Hōkūleʻa
  2022-04-25T09:10:10UTC 2022-04-24T23:10:10-10:00 2022-04-24T23:10:10-10:00   4.82814 -147.05007     173   6.7 Hikianalia
  2022-04-25T08:17:38UTC 2022-04-24T22:17:38-10:00 2022-04-24T22:17:38-10:00   4.89256 -147.05514     169   6.4 Hōkūleʻa
  2022-04-25T08:09:17UTC 2022-04-24T22:09:17-10:00 2022-04-24T22:09:17-10:00   4.94084 -147.06440     167   7.3 Hikianalia
  2022-04-25T07:18:32UTC 2022-04-24T21:18:32-10:00 2022-04-24T21:18:32-10:00   4.99617 -147.07612     162   6.4 Hōkūleʻa
  2022-04-25T07:10:13UTC 2022-04-24T21:10:13-10:00 2022-04-24T21:10:13-10:00   5.05741 -147.09211     160   6.0 Hikianalia
  2022-04-25T06:18:50UTC 2022-04-24T20:18:50-10:00 2022-04-24T20:18:50-10:00   5.09823 -147.10876     163   6.1 Hōkūleʻa
  2022-04-25T06:10:43UTC 2022-04-24T20:10:43-10:00 2022-04-24T20:10:43-10:00   5.15014 -147.12648     161   6.8 Hikianalia
  2022-04-25T05:18:35UTC 2022-04-24T19:18:35-10:00 2022-04-24T19:18:35-10:00   5.19593 -147.13845     160   7.5 Hōkūleʻa
  2022-04-25T05:18:14UTC 2022-04-24T19:18:14-10:00 2022-04-24T19:18:14-10:00   5.24460 -147.15936     159   4.8 Hikianalia
  2022-04-25T04:29:22UTC 2022-04-24T18:29:22-10:00 2022-04-24T18:29:22-10:00   5.29195 -147.17403     159   6.1 Hōkūleʻa
  2022-04-25T04:10:21UTC 2022-04-24T18:10:21-10:00 2022-04-24T18:10:21-10:00   5.33029 -147.19223     159   6.1 Hikianalia
  2022-04-25T03:24:23UTC 2022-04-24T17:24:23-10:00 2022-04-24T17:24:23-10:00   5.39449 -147.21388     163   6.0 Hōkūleʻa
  2022-04-25T03:10:12UTC 2022-04-24T17:10:12-10:00 2022-04-24T17:10:12-10:00   5.42555 -147.22849     169   5.5 Hikianalia
  2022-04-25T02:17:53UTC 2022-04-24T16:17:53-10:00 2022-04-24T16:17:53-10:00   5.50044 -147.24619     174   5.7 Hōkūleʻa
  2022-04-25T02:09:48UTC 2022-04-24T16:09:48-10:00 2022-04-24T16:09:48-10:00   5.51624 -147.24568     177   5.9 Hikianalia
  2022-04-25T01:18:27UTC 2022-04-24T15:18:27-10:00 2022-04-24T15:18:27-10:00   5.59421 -147.25551     174   5.4 Hōkūleʻa
  2022-04-25T01:10:20UTC 2022-04-24T15:10:20-10:00 2022-04-24T15:10:20-10:00   5.61353 -147.24993     166   6.4 Hikianalia
  2022-04-25T00:17:46UTC 2022-04-24T14:17:46-10:00 2022-04-24T14:17:46-10:00   5.68485 -147.26531     167   5.6 Hōkūleʻa
  2022-04-25T00:09:20UTC 2022-04-24T14:09:20-10:00 2022-04-24T14:09:20-10:00   5.71859 -147.27546     167   5.8 Hikianalia
  2022-04-24T23:18:35UTC 2022-04-24T13:18:35-10:00 2022-04-24T13:18:35-10:00   5.77432 -147.28538     166   5.7 Hōkūleʻa
  2022-04-24T23:10:16UTC 2022-04-24T13:10:16-10:00 2022-04-24T13:10:16-10:00   5.81142 -147.29722     166   6.0 Hikianalia
  2022-04-24T22:18:20UTC 2022-04-24T12:18:20-10:00 2022-04-24T12:18:20-10:00   5.89621 -147.31876     167   4.5 Hikianalia
  2022-04-24T22:17:50UTC 2022-04-24T12:17:50-10:00 2022-04-24T12:17:50-10:00   5.86785 -147.30883     165   5.7 Hōkūleʻa
  2022-04-24T21:18:25UTC 2022-04-24T11:18:25-10:00 2022-04-24T11:18:25-10:00   5.95983 -147.33359     176   5.1 Hōkūleʻa
  2022-04-24T21:10:18UTC 2022-04-24T11:10:18-10:00 2022-04-24T11:10:18-10:00   5.97859 -147.33777     176   5.5 Hikianalia
  2022-04-24T20:17:32UTC 2022-04-24T10:17:32-10:00 2022-04-24T10:17:32-10:00   6.04684 -147.33945     175   5.4 Hōkūleʻa
  2022-04-24T20:15:51UTC 2022-04-24T10:15:51-10:00 2022-04-24T10:15:51-10:00   6.06166 -147.34344     175   4.7 Hikianalia
  2022-04-24T19:18:38UTC 2022-04-24T09:18:38-10:00 2022-04-24T09:18:38-10:00   6.13521 -147.34707     184   5.5 Hōkūleʻa
  2022-04-24T19:10:21UTC 2022-04-24T09:10:21-10:00 2022-04-24T09:10:21-10:00   6.14665 -147.35020     183   5.4 Hikianalia
  2022-04-24T18:18:51UTC 2022-04-24T08:18:51-10:00 2022-04-24T08:18:51-10:00   6.22715 -147.34001     187   5.5 Hōkūleʻa
  2022-04-24T18:09:39UTC 2022-04-24T08:09:39-10:00 2022-04-24T08:09:39-10:00   6.23887 -147.34578     189   6.3 Hikianalia
  2022-04-24T17:18:38UTC 2022-04-24T07:18:38-10:00 2022-04-24T07:18:38-10:00   6.31848 -147.32947     181   6.0 Hōkūleʻa
  2022-04-24T17:10:15UTC 2022-04-24T07:10:15-10:00 2022-04-24T07:10:15-10:00   6.34157 -147.32872     184   8.0 Hikianalia
  2022-04-24T16:17:37UTC 2022-04-24T06:17:37-10:00 2022-04-24T06:17:37-10:00   6.42063 -147.32763     179   6.0 Hōkūleʻa
  2022-04-24T16:10:42UTC 2022-04-24T06:10:42-10:00 2022-04-24T06:10:42-10:00   6.47414 -147.32020     168   6.4 Hikianalia
  2022-04-24T15:18:32UTC 2022-04-24T05:18:32-10:00 2022-04-24T05:18:32-10:00   6.51935 -147.32999     167   6.2 Hōkūleʻa
  2022-04-24T15:10:17UTC 2022-04-24T05:10:17-10:00 2022-04-24T05:10:17-10:00   6.58025 -147.34353     161   6.4 Hikianalia
  2022-04-24T14:18:44UTC 2022-04-24T04:18:44-10:00 2022-04-24T04:18:44-10:00   6.62071 -147.35378     159   6.3 Hōkūleʻa
  2022-04-24T14:10:41UTC 2022-04-24T04:10:41-10:00 2022-04-24T04:10:41-10:00   6.68059 -147.37734     157   6.1 Hikianalia
  2022-04-24T13:19:36UTC 2022-04-24T03:19:36-10:00 2022-04-24T03:19:36-10:00   6.71780 -147.39035     153   6.2 Hōkūleʻa
  2022-04-24T12:18:49UTC 2022-04-24T02:18:49-10:00 2022-04-24T02:18:49-10:00   6.81175 -147.43897     167   5.8 Hōkūleʻa
  2022-04-24T12:10:21UTC 2022-04-24T02:10:21-10:00 2022-04-24T02:10:21-10:00   6.86847 -147.45854     168   5.9 Hikianalia
  2022-04-24T11:18:37UTC 2022-04-24T01:18:37-10:00 2022-04-24T01:18:37-10:00   6.90726 -147.46109     169   6.9 Hōkūleʻa
  2022-04-24T11:10:17UTC 2022-04-24T01:10:17-10:00 2022-04-24T01:10:17-10:00   6.96483 -147.47832     167   7.1 Hikianalia
  2022-04-24T10:19:37UTC 2022-04-24T00:19:37-10:00 2022-04-24T00:19:37-10:00   7.06340 -147.50060     174   5.1 Hikianalia
  2022-04-24T10:18:52UTC 2022-04-24T00:18:52-10:00 2022-04-24T00:18:52-10:00   7.02007 -147.48259     169   6.8 Hōkūleʻa
  2022-04-24T09:18:41UTC 2022-04-23T23:18:41-10:00 2022-04-23T23:18:41-10:00   7.13281 -147.50534     173   6.9 Hōkūleʻa
  2022-04-24T09:10:12UTC 2022-04-23T23:10:12-10:00 2022-04-23T23:10:12-10:00   7.16150 -147.51118     172   6.7 Hikianalia
  2022-04-24T08:18:39UTC 2022-04-23T22:18:39-10:00 2022-04-23T22:18:39-10:00   7.24817 -147.52016     168   6.7 Hōkūleʻa
  2022-04-24T08:10:09UTC 2022-04-23T22:10:09-10:00 2022-04-23T22:10:09-10:00   7.27227 -147.52761     170   7.0 Hikianalia
  2022-04-24T07:18:38UTC 2022-04-23T21:18:38-10:00 2022-04-23T21:18:38-10:00   7.35751 -147.54379     167   8.6 Hōkūleʻa
  2022-04-24T07:10:23UTC 2022-04-23T21:10:23-10:00 2022-04-23T21:10:23-10:00   7.38741 -147.54877     169   7.7 Hikianalia
  2022-04-24T06:30:08UTC 2022-04-23T20:30:08-10:00 2022-04-23T20:30:08-10:00   7.47116 -147.56918     160   7.3 Hōkūleʻa
  2022-04-24T06:10:53UTC 2022-04-23T20:10:53-10:00 2022-04-23T20:10:53-10:00   7.51360 -147.57293     156   8.4 Hikianalia
  2022-04-24T05:18:36UTC 2022-04-23T19:18:36-10:00 2022-04-23T19:18:36-10:00   7.60767 -147.61836     158   8.7 Hōkūleʻa
  2022-04-24T05:10:09UTC 2022-04-23T19:10:09-10:00 2022-04-23T19:10:09-10:00   7.64363 -147.62977     156   9.0 Hikianalia
  2022-04-24T04:18:33UTC 2022-04-23T18:18:33-10:00 2022-04-23T18:18:33-10:00   7.74264 -147.67297     160   8.5 Hōkūleʻa
  2022-04-24T04:10:14UTC 2022-04-23T18:10:14-10:00 2022-04-23T18:10:14-10:00   7.78128 -147.69116     163   8.8 Hikianalia
  2022-04-24T03:18:36UTC 2022-04-23T17:18:36-10:00 2022-04-23T17:18:36-10:00   7.87612 -147.72155     164   8.2 Hōkūleʻa
  2022-04-24T03:09:19UTC 2022-04-23T17:09:19-10:00 2022-04-23T17:09:19-10:00   7.92370 -147.73558     160   8.0 Hikianalia
  2022-04-24T02:17:48UTC 2022-04-23T16:17:48-10:00 2022-04-23T16:17:48-10:00   8.01034 -147.75978     156   7.2 Hōkūleʻa
  2022-04-24T02:09:42UTC 2022-04-23T16:09:42-10:00 2022-04-23T16:09:42-10:00   8.04916 -147.78251     153   5.9 Hikianalia
  2022-04-24T01:18:36UTC 2022-04-23T15:18:36-10:00 2022-04-23T15:18:36-10:00   8.11843 -147.80834     139   4.3 Hōkūleʻa
  2022-04-24T01:10:08UTC 2022-04-23T15:10:08-10:00 2022-04-23T15:10:08-10:00   8.13650 -147.82731     140   4.2 Hikianalia
  2022-04-24T00:17:39UTC 2022-04-23T14:17:39-10:00 2022-04-23T14:17:39-10:00   8.17372 -147.85587     144   4.5 Hōkūleʻa
  2022-04-24T00:09:30UTC 2022-04-23T14:09:30-10:00 2022-04-23T14:09:30-10:00   8.19075 -147.87345     147   4.7 Hikianalia
  2022-04-23T23:18:30UTC 2022-04-23T13:18:30-10:00 2022-04-23T13:18:30-10:00   8.23410 -147.90035     147   4.7 Hōkūleʻa
  2022-04-23T23:16:51UTC 2022-04-23T13:16:51-10:00 2022-04-23T13:16:51-10:00   8.24930 -147.91106     147   4.8 Hikianalia
  2022-04-23T22:17:51UTC 2022-04-23T12:17:51-10:00 2022-04-23T12:17:51-10:00   8.30042 -147.94346     147   5.0 Hōkūleʻa
  2022-04-23T22:09:46UTC 2022-04-23T12:09:46-10:00 2022-04-23T12:09:46-10:00   8.32435 -147.95955     147   5.1 Hikianalia
  2022-04-23T21:17:35UTC 2022-04-23T11:17:35-10:00 2022-04-23T11:17:35-10:00   8.37114 -147.99013     149   5.2 Hōkūleʻa
  2022-04-23T21:09:11UTC 2022-04-23T11:09:11-10:00 2022-04-23T11:09:11-10:00   8.39703 -148.00612     150   5.0 Hikianalia
  2022-04-23T20:18:38UTC 2022-04-23T10:18:38-10:00 2022-04-23T10:18:38-10:00   8.44462 -148.03444     151   5.2 Hōkūleʻa
  2022-04-23T20:09:17UTC 2022-04-23T10:09:17-10:00 2022-04-23T10:09:17-10:00   8.46899 -148.04760     150   5.2 Hikianalia
  2022-04-23T19:17:35UTC 2022-04-23T09:17:35-10:00 2022-04-23T09:17:35-10:00   8.52186 -148.07678     150   7.4 Hōkūleʻa
  2022-04-23T19:10:25UTC 2022-04-23T09:10:25-10:00 2022-04-23T09:10:25-10:00   8.54306 -148.09023     149   5.2 Hikianalia
  2022-04-23T18:34:57UTC 2022-04-23T08:34:57-10:00 2022-04-23T08:34:57-10:00   8.59777 -148.12152     145   4.6 Hōkūleʻa
  2022-04-23T18:09:43UTC 2022-04-23T08:09:43-10:00 2022-04-23T08:09:43-10:00   8.61829 -148.13555     151   6.7 Hikianalia
  2022-04-23T17:18:31UTC 2022-04-23T07:18:31-10:00 2022-04-23T07:18:31-10:00   8.67792 -148.17834     145   7.0 Hōkūleʻa
  2022-04-23T17:15:29UTC 2022-04-23T07:15:29-10:00 2022-04-23T07:15:29-10:00   8.70669 -148.18542     142   6.4 Hikianalia
  2022-04-23T16:18:41UTC 2022-04-23T06:18:41-10:00 2022-04-23T06:18:41-10:00   8.77419 -148.24520     148   6.9 Hōkūleʻa
  2022-04-23T16:10:11UTC 2022-04-23T06:10:11-10:00 2022-04-23T06:10:11-10:00   8.79810 -148.25704     148   7.5 Hikianalia
  2022-04-23T15:18:43UTC 2022-04-23T05:18:43-10:00 2022-04-23T05:18:43-10:00   8.87162 -148.30702     146   6.6 Hōkūleʻa
  2022-04-23T15:10:19UTC 2022-04-23T05:10:19-10:00 2022-04-23T05:10:19-10:00   8.90453 -148.32393     143   6.8 Hikianalia
  2022-04-23T14:18:49UTC 2022-04-23T04:18:49-10:00 2022-04-23T04:18:49-10:00   8.96325 -148.36839     138   6.5 Hōkūleʻa
  2022-04-23T14:10:49UTC 2022-04-23T04:10:49-10:00 2022-04-23T04:10:49-10:00   8.99393 -148.39251     141   6.4 Hikianalia
  2022-04-23T13:18:41UTC 2022-04-23T03:18:41-10:00 2022-04-23T03:18:41-10:00   9.04409 -148.44175     143   6.7 Hōkūleʻa
  2022-04-23T13:09:12UTC 2022-04-23T03:09:12-10:00 2022-04-23T03:09:12-10:00   9.07921 -148.46246     143   6.4 Hikianalia
  2022-04-23T12:19:04UTC 2022-04-23T02:19:04-10:00 2022-04-23T02:19:04-10:00   9.13323 -148.50906     142   6.7 Hōkūleʻa
  2022-04-23T12:10:12UTC 2022-04-23T02:10:12-10:00 2022-04-23T02:10:12-10:00   9.16287 -148.52653     141   6.7 Hikianalia
  2022-04-23T11:18:30UTC 2022-04-23T01:18:30-10:00 2022-04-23T01:18:30-10:00   9.22151 -148.57970     143   6.1 Hōkūleʻa
  2022-04-23T11:10:18UTC 2022-04-23T01:10:18-10:00 2022-04-23T01:10:18-10:00   9.24926 -148.59803     143   6.1 Hikianalia
  2022-04-23T10:18:51UTC 2022-04-23T00:18:51-10:00 2022-04-23T00:18:51-10:00   9.30241 -148.64199     145   6.7 Hōkūleʻa
  2022-04-23T10:10:49UTC 2022-04-23T00:10:49-10:00 2022-04-23T00:10:49-10:00   9.33026 -148.65895     143   6.6 Hikianalia
  2022-04-23T09:18:39UTC 2022-04-22T23:18:39-10:00 2022-04-22T23:18:39-10:00   9.39468 -148.70690     145   6.4 Hōkūleʻa
  2022-04-23T09:10:10UTC 2022-04-22T23:10:10-10:00 2022-04-22T23:10:10-10:00   9.41972 -148.72587     147   6.5 Hikianalia
  2022-04-23T08:18:44UTC 2022-04-22T22:18:44-10:00 2022-04-22T22:18:44-10:00   9.48240 -148.76922     149   6.7 Hōkūleʻa
  2022-04-23T08:10:19UTC 2022-04-22T22:10:19-10:00 2022-04-22T22:10:19-10:00   9.51094 -148.78449     155   7.7 Hikianalia
  2022-04-23T07:18:41UTC 2022-04-22T21:18:41-10:00 2022-04-22T21:18:41-10:00   9.57892 -148.82741     148   6.6 Hōkūleʻa
  2022-04-23T07:10:20UTC 2022-04-22T21:10:20-10:00 2022-04-22T21:10:20-10:00   9.62782 -148.83936     151   6.0 Hikianalia
  2022-04-23T06:18:40UTC 2022-04-22T20:18:40-10:00 2022-04-22T20:18:40-10:00   9.67312 -148.88622     153   6.6 Hōkūleʻa
  2022-04-23T06:10:39UTC 2022-04-22T20:10:39-10:00 2022-04-22T20:10:39-10:00   9.71450 -148.88831     151   6.5 Hikianalia
  2022-04-23T05:18:29UTC 2022-04-22T19:18:29-10:00 2022-04-22T19:18:29-10:00   9.77111 -148.93747     153   7.0 Hōkūleʻa
  2022-04-23T05:09:17UTC 2022-04-22T19:09:17-10:00 2022-04-22T19:09:17-10:00   9.81295 -148.94249     149   6.5 Hikianalia
  2022-04-23T04:18:35UTC 2022-04-22T18:18:35-10:00 2022-04-22T18:18:35-10:00   9.87555 -148.99158     154   6.2 Hōkūleʻa
  2022-04-23T04:10:12UTC 2022-04-22T18:10:12-10:00 2022-04-22T18:10:12-10:00   9.90522 -148.99888     149   6.2 Hikianalia
  2022-04-23T03:19:00UTC 2022-04-22T17:19:00-10:00 2022-04-22T17:19:00-10:00   9.96797 -149.03628     147   7.0 Hōkūleʻa
  2022-04-23T02:24:51UTC 2022-04-22T16:24:51-10:00 2022-04-22T16:24:51-10:00  10.05598 -149.09415     151   6.2 Hōkūleʻa
  2022-04-23T02:10:19UTC 2022-04-22T16:10:19-10:00 2022-04-22T16:10:19-10:00  10.08367 -149.10576     152   7.1 Hikianalia
  2022-04-23T01:18:27UTC 2022-04-22T15:18:27-10:00 2022-04-22T15:18:27-10:00  10.15681 -149.15118     156   6.6 Hōkūleʻa
  2022-04-23T01:09:12UTC 2022-04-22T15:09:12-10:00 2022-04-22T15:09:12-10:00  10.19003 -149.16284     156   6.5 Hikianalia
  2022-04-23T00:17:49UTC 2022-04-22T14:17:49-10:00 2022-04-22T14:17:49-10:00  10.25862 -149.19597     162   7.0 Hōkūleʻa
  2022-04-23T00:10:20UTC 2022-04-22T14:10:20-10:00 2022-04-22T14:10:20-10:00  10.28817 -149.20672     166   7.3 Hikianalia
  2022-04-22T23:17:35UTC 2022-04-22T13:17:35-10:00 2022-04-22T13:17:35-10:00  10.37061 -149.23260     161   7.3 Hōkūleʻa
  2022-04-22T23:09:18UTC 2022-04-22T13:09:18-10:00 2022-04-22T13:09:18-10:00  10.40933 -149.23798     160   7.5 Hikianalia
  2022-04-22T22:18:39UTC 2022-04-22T12:18:39-10:00 2022-04-22T12:18:39-10:00  10.48386 -149.27270     159   7.3 Hōkūleʻa
  2022-04-22T22:09:49UTC 2022-04-22T12:09:49-10:00 2022-04-22T12:09:49-10:00  10.52536 -149.28145     160   7.3 Hikianalia
  2022-04-22T21:17:50UTC 2022-04-22T11:17:50-10:00 2022-04-22T11:17:50-10:00  10.60058 -149.31680     156   6.9 Hōkūleʻa
  2022-04-22T21:09:11UTC 2022-04-22T11:09:11-10:00 2022-04-22T11:09:11-10:00  10.64155 -149.32519     151   6.9 Hikianalia
  2022-04-22T20:17:35UTC 2022-04-22T10:17:35-10:00 2022-04-22T10:17:35-10:00  10.70690 -149.36529     150   6.6 Hōkūleʻa
  2022-04-22T20:09:11UTC 2022-04-22T10:09:11-10:00 2022-04-22T10:09:11-10:00  10.74207 -149.38196     149   6.2 Hikianalia
  2022-04-22T19:18:26UTC 2022-04-22T09:18:26-10:00 2022-04-22T09:18:26-10:00  10.80104 -149.42063     152   6.7 Hōkūleʻa
  2022-04-22T19:10:09UTC 2022-04-22T09:10:09-10:00 2022-04-22T09:10:09-10:00  10.82957 -149.43483     151   6.9 Hikianalia
  2022-04-22T18:17:48UTC 2022-04-22T08:17:48-10:00 2022-04-22T08:17:48-10:00  10.90124 -149.47451     150   7.5 Hōkūleʻa
  2022-04-22T18:09:44UTC 2022-04-22T08:09:44-10:00 2022-04-22T08:09:44-10:00  10.93120 -149.49240     153   7.5 Hikianalia
  2022-04-22T17:18:31UTC 2022-04-22T07:18:31-10:00 2022-04-22T07:18:31-10:00  11.00932 -149.53706     151   7.6 Hōkūleʻa
  2022-04-22T17:10:23UTC 2022-04-22T07:10:23-10:00 2022-04-22T07:10:23-10:00  11.04179 -149.54950     152   7.7 Hikianalia
  2022-04-22T16:18:35UTC 2022-04-22T06:18:35-10:00 2022-04-22T06:18:35-10:00  11.12037 -149.59884     154   5.5 Hōkūleʻa
  2022-04-22T16:10:18UTC 2022-04-22T06:10:18-10:00 2022-04-22T06:10:18-10:00  11.15494 -149.61113     161   4.7 Hikianalia
  2022-04-22T15:18:33UTC 2022-04-22T05:18:33-10:00 2022-04-22T05:18:33-10:00  11.20302 -149.63963     168   4.6 Hōkūleʻa
  2022-04-22T15:10:18UTC 2022-04-22T05:10:18-10:00 2022-04-22T05:10:18-10:00  11.23008 -149.63688     162   6.1 Hikianalia
  2022-04-22T14:20:48UTC 2022-04-22T04:20:48-10:00 2022-04-22T04:20:48-10:00  11.31059 -149.66344     139   5.5 Hikianalia
  2022-04-22T14:18:57UTC 2022-04-22T04:18:57-10:00 2022-04-22T04:18:57-10:00  11.27784 -149.65578     147   6.1 Hōkūleʻa
  2022-04-22T13:18:34UTC 2022-04-22T03:18:34-10:00 2022-04-22T03:18:34-10:00  11.36374 -149.71290     142   7.7 Hōkūleʻa
  2022-04-22T13:10:20UTC 2022-04-22T03:10:20-10:00 2022-04-22T03:10:20-10:00  11.39207 -149.73427     144   8.1 Hikianalia
  2022-04-22T12:18:38UTC 2022-04-22T02:18:38-10:00 2022-04-22T02:18:38-10:00  11.46471 -149.79335     145   7.7 Hōkūleʻa
  2022-04-22T12:10:17UTC 2022-04-22T02:10:17-10:00 2022-04-22T02:10:17-10:00  11.50234 -149.81506     145   7.7 Hikianalia
  2022-04-22T11:18:42UTC 2022-04-22T01:18:42-10:00 2022-04-22T01:18:42-10:00  11.56977 -149.86849     144   7.2 Hōkūleʻa
  2022-04-22T11:10:19UTC 2022-04-22T01:10:19-10:00 2022-04-22T01:10:19-10:00  11.60720 -149.89025     147   7.3 Hikianalia
  2022-04-22T10:18:50UTC 2022-04-22T00:18:50-10:00 2022-04-22T00:18:50-10:00  11.66646 -149.93963     145   7.2 Hōkūleʻa
  2022-04-22T10:10:51UTC 2022-04-22T00:10:51-10:00 2022-04-22T00:10:51-10:00  11.70943 -149.95681     147   7.6 Hikianalia
  2022-04-22T09:18:32UTC 2022-04-21T23:18:32-10:00 2022-04-21T23:18:32-10:00  11.76629 -150.00973     151   7.1 Hōkūleʻa
  2022-04-22T09:10:20UTC 2022-04-21T23:10:20-10:00 2022-04-21T23:10:20-10:00  11.81691 -150.02653     149   7.2 Hikianalia
  2022-04-22T08:18:39UTC 2022-04-21T22:18:39-10:00 2022-04-21T22:18:39-10:00  11.87003 -150.06723     152   7.1 Hōkūleʻa
  2022-04-22T08:10:16UTC 2022-04-21T22:10:16-10:00 2022-04-21T22:10:16-10:00  11.92130 -150.08927     150   6.9 Hikianalia
  2022-04-22T07:18:35UTC 2022-04-21T21:18:35-10:00 2022-04-21T21:18:35-10:00  11.97493 -150.12268     148   7.2 Hōkūleʻa
  2022-04-22T07:10:21UTC 2022-04-21T21:10:21-10:00 2022-04-21T21:10:21-10:00  12.02090 -150.14877     149   6.5 Hikianalia
  2022-04-22T06:18:50UTC 2022-04-21T20:18:50-10:00 2022-04-21T20:18:50-10:00  12.07680 -150.18753     151   7.3 Hōkūleʻa
  2022-04-22T06:10:38UTC 2022-04-21T20:10:38-10:00 2022-04-21T20:10:38-10:00  12.11493 -150.20506     151   8.2 Hikianalia
  2022-04-22T05:19:32UTC 2022-04-21T19:19:32-10:00 2022-04-21T19:19:32-10:00  12.21659 -150.26246     153   5.8 Hikianalia
  2022-04-22T05:18:41UTC 2022-04-21T19:18:41-10:00 2022-04-21T19:18:41-10:00  12.18429 -150.24902     150   7.4 Hōkūleʻa
  2022-04-22T04:18:44UTC 2022-04-21T18:18:44-10:00 2022-04-21T18:18:44-10:00  12.29254 -150.31132     156   7.4 Hōkūleʻa
  2022-04-22T04:10:13UTC 2022-04-21T18:10:13-10:00 2022-04-21T18:10:13-10:00  12.31565 -150.31451     159   7.6 Hikianalia
  2022-04-22T03:18:25UTC 2022-04-21T17:18:25-10:00 2022-04-21T17:18:25-10:00  12.40584 -150.36348     163   7.5 Hōkūleʻa
  2022-04-22T03:09:12UTC 2022-04-21T17:09:12-10:00 2022-04-21T17:09:12-10:00  12.43715 -150.36082     159   7.8 Hikianalia
  2022-04-22T02:17:48UTC 2022-04-21T16:17:48-10:00 2022-04-21T16:17:48-10:00  12.52792 -150.40079     158   7.3 Hōkūleʻa
  2022-04-22T02:10:43UTC 2022-04-21T16:10:43-10:00 2022-04-21T16:10:43-10:00  12.55567 -150.40712     159   8.5 Hikianalia
  2022-04-22T01:19:03UTC 2022-04-21T15:19:03-10:00 2022-04-21T15:19:03-10:00  12.67038 -150.45171     157   6.5 Hikianalia
  2022-04-22T01:18:37UTC 2022-04-21T15:18:37-10:00 2022-04-21T15:18:37-10:00  12.64049 -150.44680     158   7.5 Hōkūleʻa
  2022-04-22T00:17:30UTC 2022-04-21T14:17:30-10:00 2022-04-21T14:17:30-10:00  12.75977 -150.49609     165   7.7 Hōkūleʻa
  2022-04-22T00:10:19UTC 2022-04-21T14:10:19-10:00 2022-04-21T14:10:19-10:00  12.78522 -150.50199     164   7.5 Hikianalia
  2022-04-21T23:18:38UTC 2022-04-21T13:18:38-10:00 2022-04-21T13:18:38-10:00  12.88235 -150.53046     158   7.6 Hōkūleʻa
  2022-04-21T23:09:12UTC 2022-04-21T13:09:12-10:00 2022-04-21T13:09:12-10:00  12.90904 -150.53722     157   7.8 Hikianalia
  2022-04-21T22:17:42UTC 2022-04-21T12:17:42-10:00 2022-04-21T12:17:42-10:00  13.00271 -150.57936     156   7.5 Hōkūleʻa
  2022-04-21T22:09:39UTC 2022-04-21T12:09:39-10:00 2022-04-21T12:09:39-10:00  13.02925 -150.58872     156   8.8 Hikianalia
  2022-04-21T21:19:16UTC 2022-04-21T11:19:16-10:00 2022-04-21T11:19:16-10:00  13.14240 -150.63902     159   6.0 Hikianalia
  2022-04-21T21:17:33UTC 2022-04-21T11:17:33-10:00 2022-04-21T11:17:33-10:00  13.11709 -150.63103     160   8.0 Hōkūleʻa
  2022-04-21T20:24:58UTC 2022-04-21T10:24:58-10:00 2022-04-21T10:24:58-10:00  13.22774 -150.67260     160   6.3 Hōkūleʻa
  2022-04-21T20:09:09UTC 2022-04-21T10:09:09-10:00 2022-04-21T10:09:09-10:00  13.25312 -150.68129     161   8.4 Hikianalia
  2022-04-21T19:18:33UTC 2022-04-21T09:18:33-10:00 2022-04-21T09:18:33-10:00  13.33807 -150.71408     154   6.8 Hōkūleʻa
  2022-04-21T19:17:46UTC 2022-04-21T09:17:46-10:00 2022-04-21T09:17:46-10:00  13.36679 -150.72109     152   6.4 Hikianalia
  2022-04-21T18:17:41UTC 2022-04-21T08:17:41-10:00 2022-04-21T08:17:41-10:00  13.44215 -150.76678     152   8.6 Hōkūleʻa
  2022-04-21T18:10:20UTC 2022-04-21T08:10:20-10:00 2022-04-21T08:10:20-10:00  13.47256 -150.77903     151   7.2 Hikianalia
  2022-04-21T17:28:00UTC 2022-04-21T07:28:00-10:00 2022-04-21T07:28:00-10:00  13.54846 -150.82336     148   6.2 Hōkūleʻa
  2022-04-21T17:10:35UTC 2022-04-21T07:10:35-10:00 2022-04-21T07:10:35-10:00  13.57724 -150.83823     147   7.1 Hikianalia
  2022-04-21T16:18:36UTC 2022-04-21T06:18:36-10:00 2022-04-21T06:18:36-10:00  13.64919 -150.88885     150   7.0 Hōkūleʻa
  2022-04-21T16:09:54UTC 2022-04-21T06:09:54-10:00 2022-04-21T06:09:54-10:00  13.67793 -150.90496     149   7.1 Hikianalia
  2022-04-21T15:17:33UTC 2022-04-21T05:17:33-10:00 2022-04-21T05:17:33-10:00  13.75184 -150.95032     143   7.0 Hōkūleʻa
  2022-04-21T15:10:11UTC 2022-04-21T05:10:11-10:00 2022-04-21T05:10:11-10:00  13.77976 -150.96695     143   7.0 Hikianalia
  2022-04-21T14:18:40UTC 2022-04-21T04:18:40-10:00 2022-04-21T04:18:40-10:00  13.84378 -151.02227     142   8.1 Hōkūleʻa
  2022-04-21T14:10:09UTC 2022-04-21T04:10:09-10:00 2022-04-21T04:10:09-10:00  13.87292 -151.03912     140   8.9 Hikianalia
  2022-04-21T13:25:08UTC 2022-04-21T03:25:08-10:00 2022-04-21T03:25:08-10:00  13.93928 -151.09928     138   6.6 Hōkūleʻa
  2022-04-21T13:20:19UTC 2022-04-21T03:20:19-10:00 2022-04-21T03:20:19-10:00  13.96818 -151.11982     139   6.4 Hikianalia
  2022-04-21T12:18:41UTC 2022-04-21T02:18:41-10:00 2022-04-21T02:18:41-10:00  14.02968 -151.18293     143   6.9 Hōkūleʻa
  2022-04-21T12:10:43UTC 2022-04-21T02:10:43-10:00 2022-04-21T02:10:43-10:00  14.06173 -151.20295     144   7.1 Hikianalia
  2022-04-21T11:18:32UTC 2022-04-21T01:18:32-10:00 2022-04-21T01:18:32-10:00  14.12254 -151.25378     147   6.6 Hōkūleʻa
  2022-04-21T11:10:18UTC 2022-04-21T01:10:18-10:00 2022-04-21T01:10:18-10:00  14.15734 -151.27534     152   6.7 Hikianalia
  2022-04-21T10:18:42UTC 2022-04-21T00:18:42-10:00 2022-04-21T00:18:42-10:00  14.21535 -151.31611     158   6.7 Hōkūleʻa
  2022-04-21T10:10:12UTC 2022-04-21T00:10:12-10:00 2022-04-21T00:10:12-10:00  14.25690 -151.33032     159   6.7 Hikianalia
  2022-04-21T09:18:41UTC 2022-04-20T23:18:41-10:00 2022-04-20T23:18:41-10:00  14.32028 -151.35903     158   6.8 Hōkūleʻa
  2022-04-21T09:09:20UTC 2022-04-20T23:09:20-10:00 2022-04-20T23:09:20-10:00  14.36379 -151.37261     157   6.5 Hikianalia
  2022-04-21T08:18:38UTC 2022-04-20T22:18:38-10:00 2022-04-20T22:18:38-10:00  14.42592 -151.40325     157   7.9 Hōkūleʻa
  2022-04-21T08:10:43UTC 2022-04-20T22:10:43-10:00 2022-04-20T22:10:43-10:00  14.46227 -151.41542     156   7.0 Hikianalia
  2022-04-21T07:26:20UTC 2022-04-20T21:26:20-10:00 2022-04-20T21:26:20-10:00  14.53263 -151.44868     152   6.0 Hōkūleʻa
  2022-04-21T07:10:20UTC 2022-04-20T21:10:20-10:00 2022-04-20T21:10:20-10:00  14.56991 -151.46357     151   6.6 Hikianalia
  2022-04-21T06:17:49UTC 2022-04-20T20:17:49-10:00 2022-04-20T20:17:49-10:00  14.63304 -151.50374     150   6.9 Hōkūleʻa
  2022-04-21T06:10:13UTC 2022-04-20T20:10:13-10:00 2022-04-20T20:10:13-10:00  14.66718 -151.51833     149   6.5 Hikianalia
  2022-04-21T05:18:26UTC 2022-04-20T19:18:26-10:00 2022-04-20T19:18:26-10:00  14.73282 -151.56180     147   6.8 Hōkūleʻa
  2022-04-21T05:09:19UTC 2022-04-20T19:09:19-10:00 2022-04-20T19:09:19-10:00  14.76227 -151.57687     149   6.4 Hikianalia
  2022-04-21T04:18:35UTC 2022-04-20T18:18:35-10:00 2022-04-20T18:18:35-10:00  14.82778 -151.62450     153   7.1 Hōkūleʻa
  2022-04-21T04:10:41UTC 2022-04-20T18:10:41-10:00 2022-04-20T18:10:41-10:00  14.85226 -151.63332     151   7.5 Hikianalia
  2022-04-21T03:18:41UTC 2022-04-20T17:18:41-10:00 2022-04-20T17:18:41-10:00  14.93355 -151.68012     148   7.1 Hōkūleʻa
  2022-04-21T03:10:18UTC 2022-04-20T17:10:18-10:00 2022-04-20T17:10:18-10:00  14.96377 -151.69594     148   6.7 Hikianalia
  2022-04-21T02:18:49UTC 2022-04-20T16:18:49-10:00 2022-04-20T16:18:49-10:00  15.03345 -151.74548     155   7.1 Hōkūleʻa
  2022-04-21T02:09:09UTC 2022-04-20T16:09:09-10:00 2022-04-20T16:09:09-10:00  15.05981 -151.75842     156   7.5 Hikianalia
  2022-04-21T01:18:35UTC 2022-04-20T15:18:35-10:00 2022-04-20T15:18:35-10:00  15.14162 -151.79812     156   7.4 Hōkūleʻa
  2022-04-21T01:10:11UTC 2022-04-20T15:10:11-10:00 2022-04-20T15:10:11-10:00  15.17247 -151.81112     158   7.4 Hikianalia
  2022-04-21T00:17:37UTC 2022-04-20T14:17:37-10:00 2022-04-20T14:17:37-10:00  15.25731 -151.85009     156   7.7 Hōkūleʻa
  2022-04-21T00:09:44UTC 2022-04-20T14:09:44-10:00 2022-04-20T14:09:44-10:00  15.28726 -151.85998     155   7.9 Hikianalia
  2022-04-20T23:17:34UTC 2022-04-20T13:17:34-10:00 2022-04-20T13:17:34-10:00  15.37531 -151.90496     157   7.9 Hōkūleʻa
  2022-04-20T23:09:16UTC 2022-04-20T13:09:16-10:00 2022-04-20T13:09:16-10:00  15.40727 -151.91770     160   8.5 Hikianalia
  2022-04-20T22:17:52UTC 2022-04-20T12:17:52-10:00 2022-04-20T12:17:52-10:00  15.49646 -151.95748     158   7.4 Hōkūleʻa
  2022-04-20T22:09:12UTC 2022-04-20T12:09:12-10:00 2022-04-20T12:09:12-10:00  15.54044 -151.96866     150   8.6 Hikianalia
  2022-04-20T21:18:40UTC 2022-04-20T11:18:40-10:00 2022-04-20T11:18:40-10:00  15.61053 -152.00411     145   7.3 Hōkūleʻa
  2022-04-20T21:15:58UTC 2022-04-20T11:15:58-10:00 2022-04-20T11:15:58-10:00  15.65098 -152.03447     149   7.2 Hikianalia
  2022-04-20T20:17:35UTC 2022-04-20T10:17:35-10:00 2022-04-20T10:17:35-10:00  15.71220 -152.07838     152   7.1 Hōkūleʻa
  2022-04-20T20:09:53UTC 2022-04-20T10:09:53-10:00 2022-04-20T10:09:53-10:00  15.76391 -152.10533     153   7.8 Hikianalia
  2022-04-20T19:17:34UTC 2022-04-20T09:17:34-10:00 2022-04-20T09:17:34-10:00  15.81710 -152.13511     152   7.9 Hōkūleʻa
  2022-04-20T19:10:11UTC 2022-04-20T09:10:11-10:00 2022-04-20T09:10:11-10:00  15.87898 -152.16610     150   8.2 Hikianalia
  2022-04-20T18:18:42UTC 2022-04-20T08:18:42-10:00 2022-04-20T08:18:42-10:00  15.93184 -152.19687     153   7.7 Hōkūleʻa
  2022-04-20T18:10:16UTC 2022-04-20T08:10:16-10:00 2022-04-20T08:10:16-10:00  15.99844 -152.23600     153   8.3 Hikianalia
  2022-04-20T17:18:35UTC 2022-04-20T07:18:35-10:00 2022-04-20T07:18:35-10:00  16.04584 -152.25791     148   7.7 Hōkūleʻa
  2022-04-20T17:10:18UTC 2022-04-20T07:10:18-10:00 2022-04-20T07:10:18-10:00  16.12146 -152.30078     159   9.0 Hikianalia
  2022-04-20T16:18:34UTC 2022-04-20T06:18:34-10:00 2022-04-20T06:18:34-10:00  16.15525 -152.32898     157   7.9 Hōkūleʻa
  2022-04-20T16:10:41UTC 2022-04-20T06:10:41-10:00 2022-04-20T06:10:41-10:00  16.26013 -152.35690     158   7.7 Hikianalia
  2022-04-20T15:18:42UTC 2022-04-20T05:18:42-10:00 2022-04-20T05:18:42-10:00  16.27637 -152.38172     166   7.6 Hōkūleʻa
  2022-04-20T15:10:20UTC 2022-04-20T05:10:20-10:00 2022-04-20T05:10:20-10:00  16.37936 -152.40739     162   7.5 Hikianalia
  2022-04-20T14:18:43UTC 2022-04-20T04:18:43-10:00 2022-04-20T04:18:43-10:00  16.39955 -152.41294     159   7.4 Hōkūleʻa
  2022-04-20T14:10:17UTC 2022-04-20T04:10:17-10:00 2022-04-20T04:10:17-10:00  16.49958 -152.44695     156   7.1 Hikianalia
  2022-04-20T13:18:40UTC 2022-04-20T03:18:40-10:00 2022-04-20T03:18:40-10:00  16.51557 -152.45798     155   8.0 Hōkūleʻa
  2022-04-20T13:09:21UTC 2022-04-20T03:09:21-10:00 2022-04-20T03:09:21-10:00  16.60874 -152.49826     156   7.2 Hikianalia
  2022-04-20T12:17:41UTC 2022-04-20T02:17:41-10:00 2022-04-20T02:17:41-10:00  16.63950 -152.51755     153   7.3 Hōkūleʻa
  2022-04-20T12:10:43UTC 2022-04-20T02:10:43-10:00 2022-04-20T02:10:43-10:00  16.71542 -152.54864     149   7.6 Hikianalia
  2022-04-20T11:18:31UTC 2022-04-20T01:18:31-10:00 2022-04-20T01:18:31-10:00  16.74691 -152.57540     147   6.6 Hōkūleʻa
  2022-04-20T11:10:19UTC 2022-04-20T01:10:19-10:00 2022-04-20T01:10:19-10:00  16.82518 -152.61673     146   6.2 Hikianalia
  2022-04-20T10:18:43UTC 2022-04-20T00:18:43-10:00 2022-04-20T00:18:43-10:00  16.83901 -152.63838     146   8.1 Hōkūleʻa
  2022-04-20T10:10:12UTC 2022-04-20T00:10:12-10:00 2022-04-20T00:10:12-10:00  16.91141 -152.67614     145   6.3 Hikianalia
  2022-04-20T09:28:46UTC 2022-04-19T23:28:46-10:00 2022-04-19T23:28:46-10:00  16.93276 -152.70425     144   5.6 Hōkūleʻa
  2022-04-20T09:09:12UTC 2022-04-19T23:09:12-10:00 2022-04-19T23:09:12-10:00  16.99978 -152.73957     140   6.2 Hikianalia
  2022-04-20T08:18:40UTC 2022-04-19T22:18:40-10:00 2022-04-19T22:18:40-10:00  17.02153 -152.77152     142   6.7 Hōkūleʻa
  2022-04-20T08:10:43UTC 2022-04-19T22:10:43-10:00 2022-04-19T22:10:43-10:00  17.07750 -152.80727     143   7.1 Hikianalia
  2022-04-20T07:18:36UTC 2022-04-19T21:18:36-10:00 2022-04-19T21:18:36-10:00  17.10986 -152.84242     146   6.8 Hōkūleʻa
  2022-04-20T07:17:57UTC 2022-04-19T21:17:57-10:00 2022-04-19T21:17:57-10:00  17.16080 -152.87244     147   5.8 Hikianalia
  2022-04-20T06:18:42UTC 2022-04-19T20:18:42-10:00 2022-04-19T20:18:42-10:00  17.20294 -152.90883     147   6.8 Hōkūleʻa
  2022-04-20T06:10:12UTC 2022-04-19T20:10:12-10:00 2022-04-19T20:10:12-10:00  17.25333 -152.93402     146   5.7 Hikianalia
  2022-04-20T05:18:40UTC 2022-04-19T19:18:40-10:00 2022-04-19T19:18:40-10:00  17.29887 -152.97278     145   6.6 Hōkūleʻa
  2022-04-20T05:10:15UTC 2022-04-19T19:10:15-10:00 2022-04-19T19:10:15-10:00  17.33164 -152.98970     148   6.0 Hikianalia
  2022-04-20T04:17:31UTC 2022-04-19T18:17:31-10:00 2022-04-19T18:17:31-10:00  17.39152 -153.04060     151   7.8 Hōkūleʻa
  2022-04-20T04:10:49UTC 2022-04-19T18:10:49-10:00 2022-04-19T18:10:49-10:00  17.41625 -153.04543     150   8.2 Hikianalia
  2022-04-20T03:28:27UTC 2022-04-19T17:28:27-10:00 2022-04-19T17:28:27-10:00  17.48406 -153.09474     155   5.7 Hōkūleʻa
  2022-04-20T03:18:12UTC 2022-04-19T17:18:12-10:00 2022-04-19T17:18:12-10:00  17.52055 -153.10764     149   6.7 Hikianalia
  2022-04-20T02:17:49UTC 2022-04-19T16:17:49-10:00 2022-04-19T16:17:49-10:00  17.58491 -153.14437     143   6.2 Hōkūleʻa
  2022-04-20T02:10:09UTC 2022-04-19T16:10:09-10:00 2022-04-19T16:10:09-10:00  17.62966 -153.17510     139   5.7 Hikianalia
  2022-04-20T01:18:40UTC 2022-04-19T15:18:40-10:00 2022-04-19T15:18:40-10:00  17.66647 -153.20885     129   5.3 Hōkūleʻa
  2022-04-20T01:10:20UTC 2022-04-19T15:10:20-10:00 2022-04-19T15:10:20-10:00  17.70110 -153.23988     128   4.9 Hikianalia
  2022-04-20T00:17:24UTC 2022-04-19T14:17:24-10:00 2022-04-19T14:17:24-10:00  17.72310 -153.28265     134   6.6 Hōkūleʻa
  2022-04-20T00:09:42UTC 2022-04-19T14:09:42-10:00 2022-04-19T14:09:42-10:00  17.75159 -153.30824     137   5.2 Hikianalia
  2022-04-19T23:27:33UTC 2022-04-19T13:27:33-10:00 2022-04-19T13:27:33-10:00  17.78632 -153.35137     144   4.7 Hōkūleʻa
  2022-04-19T23:10:17UTC 2022-04-19T13:10:17-10:00 2022-04-19T13:10:17-10:00  17.81455 -153.36880     149   4.2 Hikianalia
  2022-04-19T22:27:31UTC 2022-04-19T12:27:31-10:00 2022-04-19T12:27:31-10:00  17.84978 -153.39993     166   4.4 Hōkūleʻa
  2022-04-19T22:09:20UTC 2022-04-19T12:09:20-10:00 2022-04-19T12:09:20-10:00  17.87560 -153.40740     173   5.6 Hikianalia
  2022-04-19T21:17:40UTC 2022-04-19T11:17:40-10:00 2022-04-19T11:17:40-10:00  17.93373 -153.42156     155   5.8 Hōkūleʻa
  2022-04-19T21:10:19UTC 2022-04-19T11:10:19-10:00 2022-04-19T11:10:19-10:00  17.96729 -153.41924     148   5.5 Hikianalia
  2022-04-19T20:18:41UTC 2022-04-19T10:18:41-10:00 2022-04-19T10:18:41-10:00  18.01926 -153.46388     151   6.1 Hōkūleʻa
  2022-04-19T20:09:49UTC 2022-04-19T10:09:49-10:00 2022-04-19T10:09:49-10:00  18.04669 -153.47079     150   6.2 Hikianalia
  2022-04-19T19:17:35UTC 2022-04-19T09:17:35-10:00 2022-04-19T09:17:35-10:00  18.11035 -153.51636     141   6.5 Hōkūleʻa
  2022-04-19T19:09:19UTC 2022-04-19T09:09:19-10:00 2022-04-19T09:09:19-10:00  18.13783 -153.52531     140   6.7 Hikianalia
  2022-04-19T18:18:52UTC 2022-04-19T08:18:52-10:00 2022-04-19T08:18:52-10:00  18.19268 -153.58670     147   7.5 Hōkūleʻa
  2022-04-19T18:10:20UTC 2022-04-19T08:10:20-10:00 2022-04-19T08:10:20-10:00  18.22280 -153.59882     148   6.6 Hikianalia
  2022-04-19T17:26:02UTC 2022-04-19T07:26:02-10:00 2022-04-19T07:26:02-10:00  18.28599 -153.64979     146   6.1 Hōkūleʻa
  2022-04-19T17:10:20UTC 2022-04-19T07:10:20-10:00 2022-04-19T07:10:20-10:00  18.31623 -153.65964     143   6.9 Hikianalia
  2022-04-19T16:18:35UTC 2022-04-19T06:18:35-10:00 2022-04-19T06:18:35-10:00  18.38205 -153.71656     140   6.9 Hōkūleʻa
  2022-04-19T16:10:40UTC 2022-04-19T06:10:40-10:00 2022-04-19T06:10:40-10:00  18.40838 -153.73281     139   7.6 Hikianalia
  2022-04-19T15:19:33UTC 2022-04-19T05:19:33-10:00 2022-04-19T05:19:33-10:00  18.46878 -153.79314     138   6.8 Hōkūleʻa
  2022-04-19T15:10:20UTC 2022-04-19T05:10:20-10:00 2022-04-19T05:10:20-10:00  18.50501 -153.81928     142   7.3 Hikianalia
  2022-04-19T14:18:52UTC 2022-04-19T04:18:52-10:00 2022-04-19T04:18:52-10:00  18.55408 -153.87286     142   6.9 Hōkūleʻa
  2022-04-19T14:10:20UTC 2022-04-19T04:10:20-10:00 2022-04-19T04:10:20-10:00  18.60173 -153.89867     146   7.2 Hikianalia
  2022-04-19T13:18:49UTC 2022-04-19T03:18:49-10:00 2022-04-19T03:18:49-10:00  18.64566 -153.94800     144   6.9 Hōkūleʻa
  2022-04-19T13:10:20UTC 2022-04-19T03:10:20-10:00 2022-04-19T03:10:20-10:00  18.70090 -153.96991     143   7.5 Hikianalia
  2022-04-19T12:20:05UTC 2022-04-19T02:20:05-10:00 2022-04-19T02:20:05-10:00  18.78521 -154.03695     155   4.8 Hikianalia
  2022-04-19T12:18:40UTC 2022-04-19T02:18:40-10:00 2022-04-19T02:18:40-10:00  18.73894 -154.01948     149   7.2 Hōkūleʻa
  2022-04-19T11:25:33UTC 2022-04-19T01:25:33-10:00 2022-04-19T01:25:33-10:00  18.83042 -154.07626     150   5.8 Hōkūleʻa
  2022-04-19T11:10:17UTC 2022-04-19T01:10:17-10:00 2022-04-19T01:10:17-10:00  18.86993 -154.07774     145   5.9 Hikianalia
  2022-04-19T10:18:43UTC 2022-04-19T00:18:43-10:00 2022-04-19T00:18:43-10:00  18.92449 -154.13325     152   9.0 Hōkūleʻa
  2022-04-19T10:10:13UTC 2022-04-19T00:10:13-10:00 2022-04-19T00:10:13-10:00  18.95079 -154.13694     156   6.5 Hikianalia
  2022-04-19T09:35:41UTC 2022-04-18T23:35:41-10:00 2022-04-18T23:35:41-10:00  19.01996 -154.18651     149   5.3 Hōkūleʻa
  2022-04-19T09:10:19UTC 2022-04-18T23:10:19-10:00 2022-04-18T23:10:19-10:00  19.05091 -154.18279     147   7.5 Hikianalia
  2022-04-19T08:18:30UTC 2022-04-18T22:18:30-10:00 2022-04-18T22:18:30-10:00  19.11666 -154.24854     143   6.8 Hōkūleʻa
  2022-04-19T08:10:46UTC 2022-04-18T22:10:46-10:00 2022-04-18T22:10:46-10:00  19.15547 -154.25451     134   6.4 Hikianalia
  2022-04-19T07:18:50UTC 2022-04-18T21:18:50-10:00 2022-04-18T21:18:50-10:00  19.20778 -154.31976     142   6.9 Hōkūleʻa
  2022-04-19T07:10:29UTC 2022-04-18T21:10:29-10:00 2022-04-18T21:10:29-10:00  19.22983 -154.33589     144   7.0 Hikianalia
  2022-04-19T06:18:49UTC 2022-04-18T20:18:49-10:00 2022-04-18T20:18:49-10:00  19.29798 -154.39488     142   6.4 Hōkūleʻa
  2022-04-19T06:10:19UTC 2022-04-18T20:10:19-10:00 2022-04-18T20:10:19-10:00  19.32515 -154.40943     141   6.7 Hikianalia
  2022-04-19T05:18:49UTC 2022-04-18T19:18:49-10:00 2022-04-18T19:18:49-10:00  19.38344 -154.46410     136   6.5 Hōkūleʻa
  2022-04-19T05:10:18UTC 2022-04-18T19:10:18-10:00 2022-04-18T19:10:18-10:00  19.41270 -154.48322     134   6.2 Hikianalia
  2022-04-19T04:18:29UTC 2022-04-18T18:18:29-10:00 2022-04-18T18:18:29-10:00  19.46113 -154.54408     132   6.4 Hōkūleʻa
  2022-04-19T04:10:47UTC 2022-04-18T18:10:47-10:00 2022-04-18T18:10:47-10:00  19.48492 -154.56079     129   6.8 Hikianalia
  2022-04-19T03:17:39UTC 2022-04-18T17:17:39-10:00 2022-04-18T17:17:39-10:00  19.53450 -154.62860     118   6.0 Hōkūleʻa
  2022-04-19T03:09:23UTC 2022-04-18T17:09:23-10:00 2022-04-18T17:09:23-10:00  19.55887 -154.65583     125   6.2 Hikianalia
  2022-04-19T02:18:40UTC 2022-04-18T16:18:40-10:00 2022-04-18T16:18:40-10:00  19.58085 -154.72095     122   5.6 Hōkūleʻa
  2022-04-19T02:10:18UTC 2022-04-18T16:10:18-10:00 2022-04-18T16:10:18-10:00  19.61657 -154.74415     110   5.6 Hikianalia
  2022-04-19T01:17:41UTC 2022-04-18T15:17:41-10:00 2022-04-18T15:17:41-10:00  19.63240 -154.80642     117   7.6 Hōkūleʻa
  2022-04-19T01:09:11UTC 2022-04-18T15:09:11-10:00 2022-04-18T15:09:11-10:00  19.64958 -154.83942     117   7.2 Hikianalia
  2022-04-19T00:18:38UTC 2022-04-18T14:18:38-10:00 2022-04-18T14:18:38-10:00  19.68901 -154.92379     117   7.7 Hōkūleʻa
  2022-04-19T00:10:42UTC 2022-04-18T14:10:42-10:00 2022-04-18T14:10:42-10:00  19.70396 -154.94999     111   7.1 Hikianalia
  2022-04-18T23:17:38UTC 2022-04-18T13:17:38-10:00 2022-04-18T13:17:38-10:00  19.74812 -155.04713      18   1.1 Hōkūleʻa
  2022-04-18T23:09:18UTC 2022-04-18T13:09:18-10:00 2022-04-18T13:09:18-10:00  19.74719 -155.06913     316   1.3 Hikianalia
  2022-04-18T22:18:37UTC 2022-04-18T12:18:37-10:00 2022-04-18T12:18:37-10:00  19.73131 -155.05275     270   0.0 Hōkūleʻa
  2022-04-18T22:09:05UTC 2022-04-18T12:09:05-10:00 2022-04-18T12:09:05-10:00  19.73120 -155.05292     146   0.0 Hikianalia
  2022-04-14T03:17:51UTC 2022-04-13T17:17:51-10:00 2022-04-13T17:17:51-10:00  19.73131 -155.05273     235   0.0 Hōkūleʻa
  2022-04-14T03:10:18UTC 2022-04-13T17:10:18-10:00 2022-04-13T17:10:18-10:00  19.73135 -155.05303       0   0.0 Hikianalia
  2022-04-14T02:18:29UTC 2022-04-13T16:18:29-10:00 2022-04-13T16:18:29-10:00  19.73135 -155.05267     120   0.8 Hōkūleʻa
  2022-04-14T02:10:50UTC 2022-04-13T16:10:50-10:00 2022-04-13T16:10:50-10:00  19.73133 -155.05303     107   2.1 Hikianalia
  2022-04-14T01:19:52UTC 2022-04-13T15:19:52-10:00 2022-04-13T15:19:52-10:00  19.74016 -155.08378     180   6.5 Hikianalia
  2022-04-14T01:17:32UTC 2022-04-13T15:17:32-10:00 2022-04-13T15:17:32-10:00  19.73795 -155.06470     174   7.3 Hōkūleʻa
  2022-04-14T00:18:42UTC 2022-04-13T14:18:42-10:00 2022-04-13T14:18:42-10:00  19.85630 -155.07786     137   7.9 Hōkūleʻa
  2022-04-14T00:09:21UTC 2022-04-13T14:09:21-10:00 2022-04-13T14:09:21-10:00  19.86845 -155.08477     135   7.7 Hikianalia
  2022-04-13T23:18:45UTC 2022-04-13T13:18:45-10:00 2022-04-13T13:18:45-10:00  19.95319 -155.17324     126   6.4 Hōkūleʻa
  2022-04-13T23:10:12UTC 2022-04-13T13:10:12-10:00 2022-04-13T13:10:12-10:00  19.95766 -155.18013     125   6.3 Hikianalia
  2022-04-13T22:17:41UTC 2022-04-13T12:17:41-10:00 2022-04-13T12:17:41-10:00  20.01737 -155.26557     116   6.0 Hōkūleʻa
  2022-04-13T22:09:48UTC 2022-04-13T12:09:48-10:00 2022-04-13T12:09:48-10:00  20.01891 -155.27203     116   5.9 Hikianalia
  2022-04-13T21:17:37UTC 2022-04-13T11:17:37-10:00 2022-04-13T11:17:37-10:00  20.06156 -155.36082     115   4.0 Hōkūleʻa
  2022-04-13T21:09:20UTC 2022-04-13T11:09:20-10:00 2022-04-13T11:09:20-10:00  20.06278 -155.36582     116   4.0 Hikianalia
  2022-04-13T20:17:44UTC 2022-04-13T10:17:44-10:00 2022-04-13T10:17:44-10:00  20.09046 -155.42500     112   6.4 Hōkūleʻa
  2022-04-13T20:09:51UTC 2022-04-13T10:09:51-10:00 2022-04-13T10:09:51-10:00  20.09176 -155.42809     111   6.5 Hikianalia
  2022-04-13T19:17:32UTC 2022-04-13T09:17:32-10:00 2022-04-13T09:17:32-10:00  20.13018 -155.53113     110   7.5 Hōkūleʻa
  2022-04-13T19:10:11UTC 2022-04-13T09:10:11-10:00 2022-04-13T09:10:11-10:00  20.13000 -155.53458     111   7.4 Hikianalia
  2022-04-13T18:18:39UTC 2022-04-13T08:18:39-10:00 2022-04-13T08:18:39-10:00  20.17311 -155.65383     126   6.6 Hōkūleʻa
  2022-04-13T18:10:21UTC 2022-04-13T08:10:21-10:00 2022-04-13T08:10:21-10:00  20.17426 -155.65608     127   6.9 Hikianalia
  2022-04-13T17:18:39UTC 2022-04-13T07:18:39-10:00 2022-04-13T07:18:39-10:00  20.23792 -155.74794     112   6.4 Hōkūleʻa
  2022-04-13T17:10:17UTC 2022-04-13T07:10:17-10:00 2022-04-13T07:10:17-10:00  20.24420 -155.75345     106   6.1 Hikianalia
  2022-04-13T16:18:52UTC 2022-04-13T06:18:52-10:00 2022-04-13T06:18:52-10:00  20.27740 -155.85270      37   5.5 Hōkūleʻa
  2022-04-13T16:09:46UTC 2022-04-13T06:09:46-10:00 2022-04-13T06:09:46-10:00  20.27257 -155.85898      34   5.5 Hikianalia
  2022-04-13T15:18:33UTC 2022-04-13T05:18:33-10:00 2022-04-13T05:18:33-10:00  20.20338 -155.91087     346   6.7 Hōkūleʻa
  2022-04-13T15:11:12UTC 2022-04-13T05:11:12-10:00 2022-04-13T05:11:12-10:00  20.19777 -155.91155     346   6.0 Hikianalia
  2022-04-13T14:18:31UTC 2022-04-13T04:18:31-10:00 2022-04-13T04:18:31-10:00  20.09426 -155.88280     319   4.5 Hōkūleʻa
  2022-04-13T14:10:47UTC 2022-04-13T04:10:47-10:00 2022-04-13T04:10:47-10:00  20.09937 -155.88525     320   4.8 Hikianalia
  2022-04-13T13:18:33UTC 2022-04-13T03:18:33-10:00 2022-04-13T03:18:33-10:00  20.03776 -155.83085     180   0.0 Hōkūleʻa
  2022-04-13T13:10:15UTC 2022-04-13T03:10:15-10:00 2022-04-13T03:10:15-10:00  20.03766 -155.83049     180   0.0 Hikianalia
  2022-04-13T03:17:39UTC 2022-04-12T17:17:39-10:00 2022-04-12T17:17:39-10:00  20.03783 -155.83085     244   0.0 Hōkūleʻa
  2022-04-13T03:10:12UTC 2022-04-12T17:10:12-10:00 2022-04-12T17:10:12-10:00  20.03767 -155.83049       0   0.0 Hikianalia
  2022-04-13T02:18:36UTC 2022-04-12T16:18:36-10:00 2022-04-12T16:18:36-10:00  20.03784 -155.83083     122   3.8 Hōkūleʻa
  2022-04-13T02:09:17UTC 2022-04-12T16:09:17-10:00 2022-04-12T16:09:17-10:00  20.03765 -155.83049     125   5.6 Hikianalia
  2022-04-13T01:17:32UTC 2022-04-12T15:17:32-10:00 2022-04-12T15:17:32-10:00  20.07216 -155.88889     134   5.4 Hōkūleʻa
  2022-04-13T01:10:12UTC 2022-04-12T15:10:12-10:00 2022-04-12T15:10:12-10:00  20.09046 -155.91153     131   4.7 Hikianalia
  2022-04-13T00:18:00UTC 2022-04-12T14:18:00-10:00 2022-04-12T14:18:00-10:00  20.13378 -155.95670     143   5.1 Hōkūleʻa
  2022-04-13T00:09:45UTC 2022-04-12T14:09:45-10:00 2022-04-12T14:09:45-10:00  20.14310 -155.97462     134   5.8 Hikianalia
  2022-04-12T23:18:05UTC 2022-04-12T13:18:05-10:00 2022-04-12T13:18:05-10:00  20.20216 -156.01155     147   6.8 Hōkūleʻa
  2022-04-12T23:09:18UTC 2022-04-12T13:09:18-10:00 2022-04-12T13:09:18-10:00  20.21095 -156.04830     157   6.5 Hikianalia
  2022-04-12T22:17:41UTC 2022-04-12T12:17:41-10:00 2022-04-12T12:17:41-10:00  20.29911 -156.07708     170   7.0 Hōkūleʻa
  2022-04-12T22:10:20UTC 2022-04-12T12:10:20-10:00 2022-04-12T12:10:20-10:00  20.30914 -156.09240     166   7.5 Hikianalia
  2022-04-12T21:17:33UTC 2022-04-12T11:17:33-10:00 2022-04-12T11:17:33-10:00  20.41530 -156.09974     164   6.8 Hōkūleʻa
  2022-04-12T21:09:19UTC 2022-04-12T11:09:19-10:00 2022-04-12T11:09:19-10:00  20.43240 -156.12525     164   7.9 Hikianalia
  2022-04-12T20:18:43UTC 2022-04-12T10:18:43-10:00 2022-04-12T10:18:43-10:00  20.52241 -156.13302     157   5.4 Hōkūleʻa
  2022-04-12T20:09:52UTC 2022-04-12T10:09:52-10:00 2022-04-12T10:09:52-10:00  20.55812 -156.16312     137   3.9 Hikianalia
  2022-04-12T19:18:41UTC 2022-04-12T09:18:41-10:00 2022-04-12T09:18:41-10:00  20.60552 -156.17001      75   5.1 Hōkūleʻa
  2022-04-12T19:10:21UTC 2022-04-12T09:10:21-10:00 2022-04-12T09:10:21-10:00  20.60521 -156.21016      71   4.7 Hikianalia
  2022-04-12T18:17:41UTC 2022-04-12T08:17:41-10:00 2022-04-12T08:17:41-10:00  20.58227 -156.25921      77   5.6 Hōkūleʻa
  2022-04-12T18:10:18UTC 2022-04-12T08:10:18-10:00 2022-04-12T08:10:18-10:00  20.58006 -156.28914      80   4.8 Hikianalia
  2022-04-12T17:18:28UTC 2022-04-12T07:18:28-10:00 2022-04-12T07:18:28-10:00  20.56237 -156.35429     114   5.7 Hōkūleʻa
  2022-04-12T17:10:16UTC 2022-04-12T07:10:16-10:00 2022-04-12T07:10:16-10:00  20.56661 -156.37302     126   5.6 Hikianalia
  2022-04-12T16:19:16UTC 2022-04-12T06:19:16-10:00 2022-04-12T06:19:16-10:00  20.60121 -156.44548     163   3.9 Hōkūleʻa
  2022-04-12T16:10:58UTC 2022-04-12T06:10:58-10:00 2022-04-12T06:10:58-10:00  20.62110 -156.45263     166   3.0 Hikianalia
  2022-04-12T15:18:24UTC 2022-04-12T05:18:24-10:00 2022-04-12T05:18:24-10:00  20.66401 -156.46546       4   0.3 Hōkūleʻa
  2022-04-12T15:10:20UTC 2022-04-12T05:10:20-10:00 2022-04-12T05:10:20-10:00  20.67099 -156.46580       0   0.2 Hikianalia
  2022-04-12T14:25:49UTC 2022-04-12T04:25:49-10:00 2022-04-12T04:25:49-10:00  20.65924 -156.46583     151   0.2 Hōkūleʻa
  2022-04-12T14:09:11UTC 2022-04-12T04:09:11-10:00 2022-04-12T04:09:11-10:00  20.66806 -156.46583     127   0.8 Hikianalia
  2022-04-12T13:18:34UTC 2022-04-12T03:18:34-10:00 2022-04-12T03:18:34-10:00  20.66244 -156.46767     123   6.4 Hōkūleʻa
  2022-04-12T13:10:11UTC 2022-04-12T03:10:11-10:00 2022-04-12T03:10:11-10:00  20.67576 -156.47664     130   7.7 Hikianalia
  2022-04-12T12:18:47UTC 2022-04